CW1648 Weather Reports


time (UTC)temp
C
wind
direction
speed
KPH
gust
KPH
rain 1hr
cm
rain 24hr
cm
rain mn
cm
humidity
%
barometer
mb
20260904135024 27 330 0.0 0.0 0.03 0.05 0.05 73 1005.2
20260904135018 27 259 0.0 0.0 0.03 0.05 0.05 73 1005.2
20260904134931 27 264 0.0 0.0 0.03 0.05 0.05 74 1005.2
20260904134927 27 263 0.0 0.0 0.03 0.05 0.05 75 1005.1
20260904134923 27 309 0.0 0.0 0.03 0.05 0.05 74 1005.1
20260904134914 27 257 0.0 0.0 0.03 0.05 0.05 75 1005.1
20260904134623 27 263 0.0 0.0 0.03 0.05 0.05 74 1005.2
20260904134536 27 267 0.0 0.0 0.03 0.05 0.05 74 1005.5
20260904134531 27 263 0.0 0.0 0.03 0.05 0.05 74 1005.2
20260904134519 27 267 0.0 0.0 0.03 0.05 0.05 74 1005.5
20260904134321 27 299 0.0 0.0 0.03 0.05 0.05 74 1005.5
20260904134221 27 271 0.0 0.0 0.03 0.05 0.05 74 1005.6
20260904134156 27 294 0.0 0.0 0.03 0.05 0.05 74 1005.6
20260904134134 27 292 0.0 0.0 0.03 0.05 0.05 75 1005.9
20260904134129 27 5 0.0 0.0 0.03 0.05 0.05 74 1005.6
20260904134019 27 291 0.0 0.0 0.03 0.05 0.05 75 1005.8
20260904133920 27 284 0.0 0.0 0.03 0.05 0.05 76 1005.9
20260904133819 27 213 0.0 0.0 0.03 0.05 0.05 76 1005.6
20260904133719 27 314 0.0 0.0 0.03 0.05 0.05 76 1005.6
20260904133654 27 317 0.0 0.0 0.03 0.05 0.05 76 1005.7
20260904133618 27 315 0.0 0.0 0.03 0.05 0.05 75 1005.7
20260904133519 27 317 0.0 0.0 0.03 0.05 0.05 75 1005.7
20260904133443 27 296 0.0 0.0 0.03 0.05 0.05 75 1005.7
20260904133439 27 63 0.0 0.0 0.03 0.05 0.05 75 1005.6
20260904133434 27 290 0.0 0.0 0.03 0.05 0.05 75 1005.8
20260904133151 27 308 0.0 0.0 0.03 0.05 0.05 75 1005.6
20260904133142 27 311 0.0 0.0 0.03 0.05 0.05 75 1005.7
20260904133137 26 253 0.0 0.0 0.03 0.05 0.05 76 1005.8
20260904133132 27 306 0.0 0.0 0.03 0.05 0.05 75 1005.6
20260904133018 27 280 0.0 0.0 0.03 0.05 0.05 75 1005.7
20260904132813 26 302 0.0 0.0 0.03 0.05 0.05 76 1005.7
20260904132713 26 307 0.0 0.0 0.03 0.05 0.05 76 1005.8
20260904132652 26 307 0.0 0.0 0.03 0.05 0.05 76 1005.9
20260904132612 26 309 0.0 0.0 0.03 0.05 0.05 76 1005.9
20260904132526 26 327 0.0 0.0 0.03 0.05 0.05 77 1006.0
20260904132521 26 321 0.0 0.0 0.03 0.05 0.05 76 1006.1
20260904132519 26 321 0.0 0.0 0.03 0.05 0.05 76 1005.9
20260904132311 26 311 0.0 0.0 0.03 0.05 0.05 77 1006.0
20260904132211 26 311 0.0 0.0 0.03 0.05 0.05 78 1006.0
20260904132151 26 311 0.0 0.0 0.03 0.05 0.05 78 1006.1
20260904132110 26 271 0.0 0.0 0.03 0.05 0.05 77 1006.0
20260904132048 26 277 0.0 0.0 0.03 0.05 0.05 77 1006.0
20260904132010 26 277 0.0 0.0 0.03 0.05 0.05 77 1006.5
20260904131908 26 274 0.0 0.0 0.03 0.05 0.05 77 1006.0
20260904131809 26 275 0.0 0.0 0.03 0.05 0.05 77 1006.1
20260904131706 26 300 0.0 0.0 0.03 0.05 0.05 77 1006.3
20260904131650 26 300 0.0 0.0 0.03 0.05 0.05 77 1006.3
20260904131606 26 296 0.0 0.0 0.03 0.05 0.05 77 1006.1
20260904131519 26 276 0.0 0.0 0.03 0.05 0.05 77 1006.3
20260904131504 26 276 0.0 0.0 0.03 0.05 0.05 77 1006.3
20260904131404 26 284 0.0 0.0 0.03 0.05 0.05 77 1006.3
20260904131318 26 313 0.0 0.0 0.03 0.05 0.05 77 1006.3
20260904131313 26 265 0.0 0.0 0.03 0.05 0.05 77 1006.1
20260904131150 26 318 0.0 0.0 0.03 0.05 0.05 77 1006.3
20260904131103 26 285 0.0 0.0 0.03 0.05 0.05 78 1006.4
20260904131018 26 265 0.0 0.0 0.03 0.05 0.05 78 1006.4
20260904131000 26 265 0.0 0.0 0.03 0.05 0.05 78 1006.4
20260904130915 26 269 0.0 0.0 0.03 0.05 0.05 79 1006.7
20260904130909 26 267 0.0 0.0 0.03 0.05 0.05 79 1006.5
20260904130719 26 309 0.0 0.0 0.03 0.05 0.05 79 1006.5
20260904130714 26 302 0.0 0.0 0.03 0.05 0.05 79 1006.7
20260904130707 26 301 0.0 0.0 0.03 0.05 0.05 78 1006.7
20260904130533 26 289 0.0 0.0 0.00 0.03 0.03 80 1006.7
20260904130459 26 289 0.0 0.0 0.00 0.03 0.03 80 1006.7
20260904130411 26 277 0.0 0.0 0.00 0.03 0.03 80 1006.8
20260904130357 26 303 0.0 0.0 0.00 0.03 0.03 80 1006.8
20260904130305 26 252 0.0 0.0 0.00 0.03 0.03 80 1006.7
20260904130256 26 277 0.0 0.0 0.00 0.03 0.03 80 1006.8
20260904130055 26 307 0.0 0.0 0.00 0.03 0.03 80 1006.7
20260904130018 26 307 0.0 0.0 0.00 0.03 0.03 80 1006.7
20260904125955 26 307 0.0 0.0 0.00 0.03 0.03 80 1006.7
20260904125909 25 293 0.0 0.0 0.00 0.03 0.03 81 1008.9
20260904125853 25 318 0.0 0.0 0.00 0.03 0.03 80 1006.7
20260904125804 25 287 0.0 0.0 0.00 0.03 0.03 81 1006.6
20260904125755 25 292 0.0 0.0 0.00 0.03 0.03 81 1008.9
20260904125606 25 311 0.0 0.0 0.00 0.03 0.03 80 1008.9
20260904125601 25 286 0.0 0.0 0.00 0.03 0.03 81 1008.9
20260904125533 25 307 0.0 0.0 0.00 0.03 0.03 80 1008.9
20260904125409 25 313 0.0 0.0 0.00 0.03 0.03 82 1009.8
20260904125351 25 311 0.0 0.0 0.00 0.03 0.03 81 1009.4
20260904125305 25 318 0.0 0.0 0.00 0.03 0.03 82 1009.7
20260904125254 25 313 0.0 0.0 0.00 0.03 0.03 82 1009.8
20260904125049 25 282 0.0 0.0 0.00 0.03 0.03 82 1009.8
20260904125019 25 271 0.0 0.0 0.00 0.03 0.03 83 1009.8
20260904124949 25 270 0.0 0.0 0.00 0.03 0.03 83 1009.8
20260904124848 25 270 0.0 0.0 0.00 0.03 0.03 83 1009.8
20260904124748 25 261 0.0 0.0 0.00 0.03 0.03 83 1009.8
20260904124649 25 261 0.0 0.0 0.00 0.03 0.03 83 1009.8
20260904124547 25 261 0.0 0.0 0.00 0.03 0.03 83 1009.8
20260904124533 25 261 0.0 0.0 0.00 0.03 0.03 84 1009.8
20260904124447 25 261 0.0 0.0 0.00 0.03 0.03 85 1009.8
20260904124346 25 258 0.0 0.0 0.00 0.03 0.03 84 1009.8
20260904124245 25 258 0.0 0.0 0.00 0.03 0.03 84 1009.8
20260904124146 25 256 0.0 0.0 0.00 0.03 0.03 84 1009.8
20260904124044 25 256 0.0 0.0 0.00 0.03 0.03 84 1009.9
20260904124019 25 263 0.0 0.0 0.00 0.03 0.03 84 1009.9
20260904123943 25 228 0.0 0.0 0.00 0.03 0.03 84 1009.9
20260904123841 25 232 0.0 0.0 0.00 0.03 0.03 84 1009.9
20260904123741 25 355 0.0 0.0 0.00 0.03 0.03 84 1009.9
20260904123641 25 280 0.0 0.0 0.00 0.03 0.03 84 1010.0
20260904123540 25 267 0.0 0.0 0.00 0.03 0.03 84 1010.0
20260904123518 25 267 0.0 0.0 0.00 0.03 0.03 85 1010.0
20260904123440 25 267 0.0 0.0 0.00 0.03 0.03 85 1010.0
20260904123353 25 304 0.0 0.0 0.00 0.03 0.03 86 1010.1
20260904123348 25 309 0.0 0.0 0.00 0.03 0.03 85 1010.1
20260904123144 24 244 0.0 0.0 0.00 0.03 0.03 87 1010.1
20260904123139 24 246 0.0 0.0 0.00 0.03 0.03 87 1010.1
20260904123038 24 271 0.0 0.0 0.00 0.03 0.03 87 1010.1
20260904123018 24 270 0.0 0.0 0.00 0.03 0.03 87 1010.0
20260904122957 24 270 0.0 0.0 0.00 0.03 0.03 87 1010.0
20260904122844 24 270 0.0 0.0 0.00 0.03 0.03 88 1010.1
20260904122643 24 270 0.0 0.0 0.00 0.03 0.03 88 1010.1
20260904122634 24 271 0.0 0.0 0.00 0.03 0.03 88 1010.1
20260904122534 24 265 0.0 0.0 0.00 0.03 0.03 88 1010.2
20260904122518 24 259 0.0 0.0 0.00 0.03 0.03 89 1010.1
20260904122433 24 259 0.0 0.0 0.00 0.03 0.03 89 1010.1
20260904122333 24 290 0.0 0.0 0.00 0.03 0.03 89 1010.1
20260904122233 24 290 0.0 0.0 0.00 0.03 0.03 89 1010.0
20260904122132 24 290 0.0 0.0 0.00 0.03 0.03 89 1010.0
20260904122032 24 290 0.0 0.0 0.00 0.03 0.03 89 1010.0
20260904122018 24 271 0.0 0.0 0.00 0.03 0.03 89 1010.1
20260904121932 24 282 0.0 0.0 0.00 0.03 0.03 90 1010.1
20260904121830 23 250 0.0 0.0 0.00 0.03 0.03 90 1010.0
20260904121730 23 248 0.0 0.0 0.00 0.03 0.03 91 1010.0
20260904121648 23 250 0.0 0.0 0.00 0.03 0.03 92 1010.0
20260904121644 23 256 0.0 0.0 0.00 0.03 0.03 91 1009.9
20260904121637 23 250 0.0 0.0 0.00 0.03 0.03 92 1009.9
20260904121519 23 250 0.0 0.0 0.00 0.03 0.03 92 1010.1
20260904121427 23 250 0.0 0.0 0.00 0.03 0.03 92 1010.0
20260904121340 23 251 0.0 0.0 0.00 0.03 0.03 93 1009.9
20260904121335 23 250 0.0 0.0 0.00 0.03 0.03 92 1010.0
20260904121144 23 240 0.0 0.0 0.00 0.03 0.03 94 1009.9
20260904121134 23 240 0.0 0.0 0.00 0.03 0.03 93 1010.0
20260904121019 23 240 0.0 0.0 0.00 0.03 0.03 94 1010.1
20260904120924 23 240 0.0 0.0 0.00 0.03 0.03 94 1010.0
20260904120824 23 239 0.0 0.0 0.00 0.03 0.03 94 1010.0
20260904120722 23 238 0.0 0.0 0.00 0.03 0.03 94 1009.9
20260904120639 23 238 0.0 0.0 0.00 0.03 0.03 95 1010.0
20260904120622 23 238 0.0 0.0 0.00 0.03 0.03 95 1010.0
20260904120522 23 238 0.0 0.0 0.00 0.03 0.03 95 1009.9
20260904120518 23 238 0.0 0.0 0.00 0.03 0.03 95 1010.0
20260904120421 23 238 0.0 0.0 0.00 0.03 0.03 95 1009.9
20260904120321 23 238 0.0 0.0 0.00 0.03 0.03 95 1009.9
20260904120220 23 238 0.0 0.0 0.00 0.03 0.03 95 1009.9
20260904120153 23 238 0.0 0.0 0.00 0.03 0.03 95 1009.9
20260904120149 22 238 0.0 0.0 0.00 0.03 0.03 96 1009.9
20260904120145 23 238 0.0 0.0 0.00 0.03 0.03 95 1009.9
20260904120138 23 238 0.0 0.0 0.00 0.03 0.03 95 1009.9
20260904120018 22 238 0.0 0.0 0.00 0.03 0.03 96 1010.0
20260904115819 22 237 0.0 0.0 0.00 0.03 0.03 96 1009.9
20260904115716 22 237 0.0 0.0 0.00 0.03 0.03 96 1009.8
20260904115635 22 237 0.0 0.0 0.00 0.03 0.03 96 1009.9
20260904115615 22 237 0.0 0.0 0.00 0.03 0.03 96 1009.9
20260904115518 22 237 0.0 0.0 0.00 0.03 0.03 96 1010.0
20260904115515 22 237 0.0 0.0 0.00 0.03 0.03 96 1009.8
20260904115415 22 237 0.0 0.0 0.00 0.03 0.03 96 1009.9
20260904115313 22 237 0.0 0.0 0.00 0.03 0.03 96 1009.9
20260904115213 22 237 0.0 0.0 0.00 0.03 0.03 96 1009.9
20260904115135 22 237 0.0 0.0 0.00 0.03 0.03 96 1010.0
20260904115112 22 237 0.0 0.0 0.00 0.03 0.03 96 1010.0
20260904115018 22 237 0.0 0.0 0.00 0.03 0.03 96 1010.1
20260904115012 22 237 0.0 0.0 0.00 0.03 0.03 96 1010.0
20260904114912 22 237 0.0 0.0 0.00 0.03 0.03 96 1010.0
20260904114825 22 237 0.0 0.0 0.00 0.03 0.03 96 1010.1
20260904114820 22 237 0.0 0.0 0.00 0.03 0.03 96 1010.0
20260904114610 22 237 0.0 0.0 0.00 0.03 0.03 96 1010.1
20260904114518 22 267 0.0 0.0 0.00 0.03 0.03 96 1010.2
20260904114510 22 267 0.0 0.0 0.00 0.03 0.03 96 1010.1
20260904114409 22 267 0.0 0.0 0.00 0.03 0.03 96 1010.1
20260904114309 22 267 0.0 0.0 0.00 0.03 0.03 96 1010.1
20260904114209 22 268 0.0 0.0 0.00 0.03 0.03 96 1010.1
20260904114121 21 268 0.0 0.0 0.00 0.03 0.03 96 1010.0
20260904114115 21 268 0.0 0.0 0.00 0.03 0.03 96 1010.0
20260904114033 21 268 0.0 0.0 0.00 0.03 0.03 96 1010.2
20260904113906 21 268 0.0 0.0 0.00 0.03 0.03 96 1010.1
20260904113858 21 269 0.0 0.0 0.00 0.03 0.03 96 1010.1
20260904113805 21 268 0.0 0.0 0.00 0.03 0.03 96 1010.0
20260904113741 21 269 0.0 0.0 0.00 0.03 0.03 96 1010.1
20260904113604 21 269 0.0 0.0 0.00 0.03 0.03 96 1010.1
20260904113518 21 269 0.0 0.0 0.00 0.03 0.03 96 1010.2
20260904113504 21 269 0.0 0.0 0.00 0.03 0.03 96 1010.1
20260904113419 21 269 0.0 0.0 0.00 0.03 0.03 96 1010.1
20260904113413 21 269 0.0 0.0 0.00 0.03 0.03 96 1010.1
20260904113204 21 269 0.0 0.0 0.00 0.03 0.03 96 1010.1
20260904113103 21 269 0.0 0.0 0.00 0.03 0.03 96 1010.1
20260904113034 21 269 0.0 0.0 0.00 0.03 0.03 96 1010.2
20260904113024 21 269 0.0 0.0 0.00 0.03 0.03 96 1010.1
20260904112911 21 269 0.0 0.0 0.00 0.03 0.03 96 1010.1
20260904112700 21 269 0.0 0.0 0.00 0.03 0.03 96 1010.2
20260904112629 21 269 0.0 0.0 0.00 0.03 0.03 96 1010.2
20260904112600 21 269 0.0 0.0 0.00 0.03 0.03 96 1010.1
20260904112518 21 269 0.0 0.0 0.00 0.03 0.03 96 1010.2
20260904112459 21 269 0.0 0.0 0.00 0.03 0.03 96 1010.1
20260904112359 21 269 0.0 0.0 0.00 0.03 0.03 96 1010.1
20260904112259 21 269 0.0 0.0 0.00 0.03 0.03 96 1010.1
20260904112206 21 269 0.0 0.0 0.00 0.03 0.03 96 1010.1
20260904112159 21 269 0.0 0.0 0.00 0.03 0.03 96 1010.1
20260904112048 21 269 0.0 0.0 0.00 0.03 0.03 96 1010.0
20260904112042 21 269 0.0 0.0 0.00 0.03 0.03 96 1010.1
20260904112018 21 269 0.0 0.0 0.00 0.03 0.03 96 1010.2
20260904111928 21 269 0.0 0.0 0.00 0.03 0.03 96 1010.1
20260904111810 21 269 0.0 0.0 0.00 0.03 0.03 96 1010.0
20260904111519 21 269 0.0 0.0 0.00 0.03 0.03 96 1010.1
20260904111456 21 269 0.0 0.0 0.00 0.03 0.03 96 1010.0
20260904111354 21 269 0.0 0.0 0.00 0.03 0.03 96 1009.9
20260904111254 21 269 0.0 0.0 0.00 0.03 0.03 96 1009.9
20260904111213 21 269 0.0 0.0 0.00 0.03 0.03 96 1009.9
20260904111102 21 269 0.0 0.0 0.00 0.03 0.03 96 1009.9
20260904111048 21 269 0.0 0.0 0.00 0.03 0.03 96 1010.0
20260904110852 21 269 0.0 0.0 0.00 0.03 0.03 96 1009.8
20260904110752 21 269 0.0 0.0 0.00 0.03 0.03 96 1009.8
20260904110624 21 269 0.0 0.0 0.00 0.03 0.03 96 1009.8
20260904110551 21 269 0.0 0.0 0.00 0.03 0.03 96 1009.8
20260904110518 21 269 0.0 0.0 0.00 0.03 0.03 96 1009.9
20260904110449 21 269 0.0 0.0 0.00 0.03 0.03 96 1009.8
20260904110350 21 269 0.0 0.0 0.00 0.03 0.03 96 1009.8
20260904110343 21 269 0.0 0.0 0.00 0.03 0.03 96 1009.6
20260904110249 21 269 0.0 0.0 0.00 0.03 0.03 96 1009.7
20260904110232 21 269 0.0 0.0 0.00 0.03 0.03 96 1009.6
20260904110049 21 269 0.0 0.0 0.00 0.03 0.03 96 1009.6
20260904110018 21 269 0.0 0.0 0.00 0.03 0.03 96 1009.7
20260904105949 21 269 0.0 0.0 0.00 0.03 0.03 96 1009.6
20260904105847 21 269 0.0 0.0 0.00 0.03 0.03 96 1009.5
20260904105746 21 269 0.0 0.0 0.00 0.03 0.03 96 1009.5
20260904105623 21 269 0.0 0.0 0.00 0.03 0.03 96 1009.5
20260904105545 21 269 0.0 0.0 0.00 0.03 0.03 96 1009.5
20260904105519 21 269 0.0 0.0 0.00 0.03 0.03 96 1009.6
20260904105445 21 269 0.0 0.0 0.00 0.03 0.03 96 1009.5
20260904105359 21 269 0.0 0.0 0.00 0.03 0.03 95 1009.5
20260904105354 21 269 0.0 0.0 0.00 0.03 0.03 96 1009.4
20260904105144 21 269 0.0 0.0 0.00 0.03 0.03 95 1009.4
20260904105123 21 269 0.0 0.0 0.00 0.03 0.03 95 1009.4
20260904105042 21 269 0.0 0.0 0.00 0.03 0.03 95 1009.4
20260904105018 21 269 0.0 0.0 0.00 0.03 0.03 95 1009.4
20260904104942 21 269 0.0 0.0 0.00 0.03 0.03 95 1009.3
20260904104843 21 269 0.0 0.0 0.00 0.03 0.03 95 1009.3
20260904104741 21 269 0.0 0.0 0.00 0.03 0.03 95 1009.3
20260904104659 21 269 0.0 0.0 0.00 0.03 0.03 95 1009.3
20260904104647 21 269 0.0 0.0 0.00 0.03 0.03 95 1009.2
20260904104519 21 269 0.0 0.0 0.00 0.03 0.03 95 1009.4
20260904104439 21 269 0.0 0.0 0.00 0.03 0.03 95 1009.3
20260904104337 21 269 0.0 0.0 0.00 0.03 0.03 95 1009.3
20260904104237 21 269 0.0 0.0 0.00 0.03 0.03 95 1009.3
20260904104122 21 269 0.0 0.0 0.00 0.03 0.03 95 1009.3
20260904104049 21 269 0.0 0.0 0.00 0.03 0.03 95 1009.4
20260904104036 21 269 0.0 0.0 0.00 0.03 0.03 95 1009.4
20260904103938 21 269 0.0 0.0 0.00 0.03 0.03 95 1009.3
20260904103836 21 269 0.0 0.0 0.00 0.03 0.03 95 1009.3
20260904103736 21 269 0.0 0.0 0.00 0.03 0.03 95 1009.2
20260904103620 21 269 0.0 0.0 0.00 0.03 0.03 95 1009.2
20260904103535 21 269 0.0 0.0 0.00 0.03 0.03 95 1009.2
20260904103519 21 269 0.0 0.0 0.00 0.03 0.03 95 1009.3
20260904103434 21 269 0.0 0.0 0.00 0.03 0.03 95 1009.2
20260904103333 21 269 0.0 0.0 0.00 0.03 0.03 95 1009.2
20260904103246 21 269 0.0 0.0 0.00 0.03 0.03 95 1009.2
20260904103242 21 269 0.0 0.0 0.00 0.03 0.03 95 1009.1
20260904103120 21 269 0.0 0.0 0.00 0.03 0.03 95 1009.2
20260904103032 21 269 0.0 0.0 0.00 0.03 0.03 95 1009.2
20260904103019 21 269 0.0 0.0 0.00 0.03 0.03 95 1009.2
20260904102932 21 269 0.0 0.0 0.00 0.03 0.03 95 1009.1
20260904102832 21 269 0.0 0.0 0.00 0.03 0.03 95 1009.1
20260904102730 21 269 0.0 0.0 0.00 0.03 0.03 95 1009.1
20260904102703 21 269 0.0 0.0 0.00 0.03 0.03 95 1009.1
20260904102659 21 269 0.0 0.0 0.00 0.03 0.03 95 1009.1
20260904102645 21 269 0.0 0.0 0.00 0.03 0.03 95 1009.1
20260904102548 21 269 0.0 0.0 0.00 0.03 0.03 95 1009.2
20260904102329 21 269 0.0 0.0 0.00 0.03 0.03 95 1009.1
20260904102229 21 269 0.0 0.0 0.00 0.03 0.03 95 1009.1
20260904102119 21 269 0.0 0.0 0.00 0.03 0.03 95 1009.1
20260904102034 21 269 0.0 0.0 0.00 0.03 0.03 95 1009.2
20260904102028 21 269 0.0 0.0 0.00 0.03 0.03 95 1009.1
20260904101926 21 269 0.0 0.0 0.00 0.03 0.03 95 1009.1
20260904101841 21 269 0.0 0.0 0.00 0.03 0.03 95 1009.0
20260904101826 21 269 0.0 0.0 0.00 0.03 0.03 95 1009.1
20260904101738 21 269 0.0 0.0 0.00 0.03 0.03 95 1009.1
20260904101728 21 269 0.0 0.0 0.00 0.03 0.03 95 1009.0
20260904101524 21 269 0.0 0.0 0.00 0.03 0.03 95 1009.0
20260904101519 21 269 0.0 0.0 0.00 0.03 0.03 95 1009.1
20260904101424 21 269 0.0 0.0 0.00 0.03 0.03 95 1009.0
20260904101324 21 269 0.0 0.0 0.00 0.03 0.03 95 1009.0
20260904101223 21 269 0.0 0.0 0.00 0.03 0.03 95 1009.1
20260904101119 21 269 0.0 0.0 0.00 0.03 0.03 95 1009.1
20260904101022 21 269 0.0 0.0 0.00 0.03 0.03 95 1009.1
20260904101019 21 269 0.0 0.0 0.00 0.03 0.03 95 1009.2
20260904100922 21 269 0.0 0.0 0.00 0.03 0.03 95 1009.1
20260904100821 21 269 0.0 0.0 0.00 0.03 0.03 95 1009.2
20260904100721 21 269 0.0 0.0 0.00 0.03 0.03 95 1009.2
20260904100622 21 269 0.0 0.0 0.00 0.03 0.03 95 1009.2
20260904100520 21 269 0.0 0.0 0.00 0.03 0.03 95 1009.2
20260904100420 21 269 0.0 0.0 0.00 0.03 0.03 95 1009.2
20260904100319 21 269 0.0 0.0 0.00 0.03 0.03 95 1009.3
20260904100219 21 269 0.0 0.0 0.00 0.03 0.03 95 1009.2
20260904100121 21 269 0.0 0.0 0.00 0.03 0.03 95 1009.3
20260904100019 22 269 0.0 0.0 0.00 0.03 0.03 95 1009.3
20260904095919 22 269 0.0 0.0 0.00 0.03 0.03 95 1009.3
20260904095831 22 269 0.0 0.0 0.00 0.03 0.03 95 1009.3
20260904095827 22 269 0.0 0.0 0.00 0.03 0.03 95 1009.3
20260904095619 22 269 0.0 0.0 0.00 0.03 0.03 95 1009.3
20260904095536 22 269 0.0 0.0 0.00 0.03 0.03 95 1009.3
20260904095519 22 269 0.0 0.0 0.00 0.03 0.03 95 1009.4
20260904095423 22 269 0.0 0.0 0.00 0.03 0.03 95 1009.3
20260904095214 22 269 0.0 0.0 0.00 0.03 0.03 95 1009.3
20260904095131 22 269 0.0 0.0 0.00 0.03 0.03 95 1009.2
20260904095123 22 269 0.0 0.0 0.00 0.03 0.03 95 1009.2
20260904095019 22 269 0.0 0.0 0.00 0.03 0.03 95 1009.4
20260904094912 22 269 0.0 0.0 0.00 0.03 0.03 95 1009.3
20260904094825 22 269 0.0 0.0 0.00 0.03 0.03 95 1009.3
20260904094821 22 269 0.0 0.0 0.00 0.03 0.03 95 1009.3
20260904094612 22 269 0.0 0.0 0.00 0.03 0.03 95 1009.3
20260904094519 22 269 0.0 0.0 0.00 0.03 0.03 95 1009.4
20260904094511 22 269 0.0 0.0 0.00 0.03 0.03 95 1009.3
20260904094409 22 269 0.0 0.0 0.00 0.03 0.03 95 1009.3
20260904094307 22 269 0.0 0.0 0.00 0.03 0.03 95 1009.3
20260904094207 22 269 0.0 0.0 0.00 0.03 0.03 95 1009.3
20260904094106 22 269 0.0 0.0 0.00 0.03 0.03 95 1009.3
20260904094019 22 275 0.0 0.0 0.00 0.03 0.03 95 1009.4
20260904094007 22 275 0.0 0.0 0.00 0.03 0.03 95 1009.2
20260904093906 22 275 0.0 0.0 0.00 0.03 0.03 95 1009.3
20260904093805 22 275 0.0 0.0 0.00 0.05 0.03 95 1009.3
20260904093705 22 275 0.0 0.0 0.00 0.05 0.03 95 1009.2
20260904093605 22 275 0.0 0.0 0.00 0.05 0.03 95 1009.2
20260904093519 22 275 0.0 0.0 0.00 0.05 0.03 95 1009.3
20260904093503 22 275 0.0 0.0 0.00 0.05 0.03 95 1009.2
20260904093404 22 275 0.0 0.0 0.00 0.05 0.03 95 1009.2
20260904093303 22 275 0.0 0.0 0.00 0.05 0.03 95 1009.2
20260904093203 22 275 0.0 0.0 0.00 0.05 0.03 96 1009.2
20260904093112 22 275 0.0 0.0 0.00 0.05 0.03 96 1009.2
20260904093102 22 275 0.0 0.0 0.00 0.05 0.03 96 1009.1
20260904093019 22 275 0.0 0.0 0.00 0.05 0.03 96 1009.2
20260904093002 22 275 0.0 0.0 0.00 0.05 0.03 96 1009.1
20260904092902 22 275 0.0 0.0 0.00 0.05 0.03 96 1009.1
20260904092801 22 275 0.0 0.0 0.00 0.05 0.03 96 1009.2
20260904092700 22 275 0.0 0.0 0.00 0.05 0.03 96 1009.2
20260904092610 22 275 0.0 0.0 0.00 0.05 0.03 96 1009.2
20260904092559 22 275 0.0 0.0 0.00 0.05 0.03 96 1009.2
20260904092518 22 275 0.0 0.0 0.00 0.05 0.03 96 1009.4
20260904092459 22 275 0.0 0.0 0.00 0.05 0.03 96 1009.2
20260904092358 22 275 0.0 0.0 0.00 0.05 0.03 96 1009.2
20260904092258 22 275 0.0 0.0 0.00 0.08 0.03 96 1009.3
20260904092157 22 275 0.0 0.0 0.00 0.08 0.03 96 1009.3
20260904092110 22 275 0.0 0.0 0.00 0.08 0.03 96 1009.3
20260904092057 22 275 0.0 0.0 0.00 0.08 0.03 96 1009.3
20260904092019 22 275 0.0 0.0 0.00 0.08 0.03 96 1009.5
20260904091956 22 275 0.0 0.0 0.00 0.08 0.03 96 1009.3
20260904091856 22 275 0.0 0.0 0.00 0.08 0.03 96 1009.3
20260904091833 22 275 0.0 0.0 0.00 0.10 0.03 96 1009.3
20260904091828 22 275 0.0 0.0 0.00 0.08 0.03 96 1009.3
20260904091556 22 275 0.0 0.0 0.00 0.10 0.03 96 1009.3
20260904091550 22 275 0.0 0.0 0.00 0.10 0.03 96 1009.4
20260904091543 22 275 0.0 0.0 0.00 0.10 0.03 96 1009.3
20260904091533 22 275 0.0 0.0 0.00 0.10 0.03 96 1009.5
20260904091431 22 275 0.0 0.0 0.00 0.13 0.03 96 1009.4
20260904091426 22 275 0.0 0.0 0.00 0.10 0.03 96 1009.4
20260904091158 22 275 0.0 0.0 0.00 0.13 0.03 96 1009.4
20260904091019 22 275 0.0 0.0 0.00 0.13 0.03 96 1009.6
20260904090951 22 275 0.0 0.0 0.00 0.13 0.03 96 1009.4
20260904090851 22 275 0.0 0.0 0.00 0.13 0.03 96 1009.4
20260904090751 22 275 0.0 0.0 0.00 0.15 0.03 96 1009.4
20260904090650 22 275 0.0 0.0 0.00 0.15 0.03 96 1009.4
20260904090609 22 275 0.0 0.0 0.00 0.15 0.03 96 1009.4
20260904090549 22 275 0.0 0.0 0.00 0.15 0.03 96 1009.4
20260904090518 22 275 0.0 0.0 0.00 0.15 0.03 96 1009.5
20260904090449 22 275 0.0 0.0 0.00 0.15 0.03 96 1009.3
20260904090416 22 275 0.0 0.0 0.00 0.18 0.03 96 1009.3
20260904090349 22 275 0.0 0.0 0.00 0.15 0.03 96 1009.3
20260904090317 22 275 0.0 0.0 0.00 0.18 0.03 96 1009.3
20260904090312 22 275 0.0 0.0 0.00 0.15 0.03 96 1009.3
20260904090303 22 275 0.0 0.0 0.00 0.18 0.03 96 1009.3
20260904090019 22 275 0.0 0.0 0.00 0.18 0.03 96 1009.5
20260904085947 22 275 0.0 0.0 0.00 0.18 0.03 96 1009.3
20260904085846 22 254 0.0 0.0 0.00 0.20 0.03 96 1009.2
20260904085746 22 254 0.0 0.0 0.00 0.20 0.03 96 1009.2
20260904085645 22 254 0.0 0.0 0.00 0.20 0.03 96 1009.2
20260904085608 22 254 0.0 0.0 0.00 0.20 0.03 96 1009.2
20260904085545 22 254 0.0 0.0 0.00 0.20 0.03 96 1009.2
20260904085519 22 254 0.0 0.0 0.00 0.20 0.03 96 1009.4
20260904085444 22 254 0.0 0.0 0.00 0.20 0.03 96 1009.2
20260904085344 22 263 0.0 0.0 0.00 0.23 0.03 96 1009.2
20260904085244 22 263 0.0 0.0 0.00 0.23 0.03 96 1009.2
20260904085142 22 263 0.0 0.0 0.00 0.23 0.03 96 1009.2
20260904085108 22 263 0.0 0.0 0.00 0.23 0.03 96 1009.2
20260904085054 22 263 0.0 0.0 0.00 0.25 0.03 96 1009.2
20260904085050 22 263 0.0 0.0 0.00 0.23 0.03 96 1009.2
20260904085019 22 263 0.0 0.0 0.00 0.25 0.03 96 1009.4
20260904084841 22 263 0.0 0.0 0.00 0.25 0.03 96 1009.2
20260904084740 22 263 0.0 0.0 0.00 0.25 0.03 96 1009.2
20260904084640 22 263 0.0 0.0 0.00 0.25 0.03 96 1009.2
20260904084605 22 263 0.0 0.0 0.00 0.25 0.03 96 1009.2
20260904084539 23 263 0.0 0.0 0.00 0.25 0.03 96 1009.2
20260904084518 23 263 0.0 0.0 0.00 0.25 0.03 96 1009.4
20260904084440 22 263 0.0 0.0 0.00 0.25 0.03 96 1009.2
20260904084341 23 263 0.0 0.0 0.00 0.25 0.03 96 1009.2
20260904084239 23 263 0.0 0.0 0.00 0.25 0.03 96 1009.2
20260904084139 23 263 0.0 0.0 0.00 0.25 0.03 96 1009.2
20260904084109 23 263 0.0 0.0 0.00 0.25 0.03 96 1009.2
20260904084105 23 263 0.0 0.0 0.00 0.25 0.03 96 1009.2
20260904084059 23 262 0.0 0.0 0.00 0.25 0.03 96 1009.1
20260904084054 23 263 0.0 0.0 0.00 0.25 0.03 96 1009.2
20260904084019 23 263 0.0 0.0 0.00 0.25 0.03 96 1009.4
20260904083940 23 263 0.0 0.0 0.00 0.25 0.03 96 1009.2
20260904083931 23 263 0.0 0.0 0.00 0.25 0.03 96 1009.2
20260904083548 23 262 0.0 0.0 0.00 0.28 0.03 96 1009.4
20260904083543 23 262 0.0 0.0 0.00 0.28 0.03 96 1009.2
20260904083355 23 267 0.0 0.0 0.00 0.28 0.03 96 1009.2
20260904083241 23 267 0.0 0.0 0.00 0.28 0.03 96 1009.3
20260904083104 23 267 0.0 0.0 0.00 0.28 0.03 96 1009.3
20260904083032 23 267 0.0 0.0 0.00 0.28 0.03 96 1009.3
20260904083018 23 267 0.0 0.0 0.00 0.28 0.03 96 1009.5
20260904082932 23 267 0.0 0.0 0.00 0.28 0.03 96 1009.3
20260904082831 23 264 0.0 0.0 0.00 0.28 0.03 96 1009.3
20260904082730 23 263 0.0 0.0 0.00 0.30 0.03 96 1009.2
20260904082630 23 263 0.0 0.0 0.00 0.30 0.03 96 1009.2
20260904082602 23 263 0.0 0.0 0.00 0.30 0.03 96 1009.2
20260904082530 23 263 0.0 0.0 0.00 0.30 0.03 96 1009.2
20260904082519 23 263 0.0 0.0 0.00 0.30 0.03 96 1009.4
20260904082430 23 263 0.0 0.0 0.00 0.30 0.03 96 1009.2
20260904082330 23 263 0.0 0.0 0.00 0.30 0.03 96 1009.2
20260904082228 23 263 0.0 0.0 0.00 0.33 0.03 96 1009.2
20260904082128 23 263 0.0 0.0 0.00 0.36 0.03 96 1009.2
20260904082101 23 263 0.0 0.0 0.00 0.36 0.03 96 1009.2
20260904082027 23 263 0.0 0.0 0.00 0.36 0.03 96 1009.2
20260904082019 23 263 0.0 0.0 0.00 0.36 0.03 96 1009.4
20260904081928 23 263 0.0 0.0 0.00 0.38 0.03 96 1009.2
20260904081828 23 263 0.0 0.0 0.00 0.41 0.03 96 1009.2
20260904081740 23 263 0.0 0.0 0.00 0.41 0.03 96 1009.2
20260904081736 23 263 0.0 0.0 0.00 0.41 0.03 96 1009.2
20260904081601 22 263 0.0 0.0 0.00 0.41 0.03 96 1009.2
20260904081526 22 263 0.0 0.0 0.00 0.41 0.03 96 1009.2
20260904081519 22 263 0.0 0.0 0.00 0.41 0.03 96 1009.3
20260904081426 22 263 0.0 0.0 0.00 0.41 0.03 96 1009.1
20260904081407 22 263 0.0 0.0 0.00 0.43 0.03 96 1009.2
20260904081402 22 263 0.0 0.0 0.00 0.43 0.03 96 1009.2
20260904081249 22 263 0.0 0.0 0.00 0.43 0.03 96 1009.2
20260904081239 22 263 0.0 0.0 0.00 0.43 0.03 96 1009.1
20260904081018 22 263 0.0 0.0 0.00 0.43 0.03 96 1009.4
20260904080938 22 263 0.0 0.0 0.00 0.43 0.03 96 1009.2
20260904080934 22 263 0.0 0.0 0.00 0.43 0.03 96 1009.2
20260904080723 22 263 0.0 0.0 0.00 0.43 0.03 96 1009.2
20260904080623 22 263 0.0 0.0 0.00 0.43 0.03 96 1009.2
20260904080558 22 263 0.0 0.0 0.00 0.46 0.03 96 1009.2
20260904080536 22 257 0.0 0.0 0.00 0.46 0.03 96 1009.2
20260904080532 22 261 0.0 0.0 0.00 0.46 0.03 96 1009.2
20260904080519 22 257 0.0 0.0 0.00 0.46 0.03 96 1009.4
20260904080335 22 245 0.0 0.0 0.00 0.46 0.03 96 1009.1
20260904080331 22 245 0.0 0.0 0.00 0.46 0.03 96 1009.1
20260904080141 22 245 0.0 0.0 0.00 0.48 0.03 96 1009.1
20260904080136 22 245 0.0 0.0 0.00 0.46 0.03 96 1009.1
20260904080128 22 245 0.0 0.0 0.00 0.46 0.03 96 1009.1
20260904080019 22 245 0.0 0.0 0.00 0.46 0.03 96 1009.4
20260904075921 22 245 0.0 0.0 0.00 0.48 0.03 96 1009.2
20260904075819 22 245 0.0 0.0 0.00 0.48 0.03 96 1009.2
20260904075719 22 245 0.0 0.0 0.00 0.48 0.03 96 1009.2
20260904075618 22 245 0.0 0.0 0.00 0.48 0.03 96 1009.2
20260904075555 22 245 0.0 0.0 0.00 0.48 0.03 96 1009.2
20260904075519 22 245 0.0 0.0 0.00 0.48 0.03 96 1009.5
20260904075417 22 245 0.0 0.0 0.00 0.51 0.03 96 1009.3
20260904075317 22 245 0.0 0.0 0.00 0.51 0.03 96 1009.3
20260904075248 22 245 0.0 0.0 0.00 0.51 0.03 96 1009.3
20260904075244 22 245 0.0 0.0 0.00 0.51 0.03 96 1009.2
20260904075239 22 245 0.0 0.0 0.00 0.51 0.03 96 1009.2
20260904075122 22 245 0.0 0.0 0.00 0.51 0.03 96 1009.2
20260904075019 22 245 0.0 0.0 0.00 0.51 0.03 96 1009.4
20260904074915 22 245 0.0 0.0 0.00 0.51 0.03 96 1009.2
20260904074814 22 245 0.0 0.0 0.00 0.51 0.03 96 1009.2
20260904074714 22 245 0.0 0.0 0.00 0.51 0.03 96 1009.2
20260904074627 22 245 0.0 0.0 0.00 0.51 0.03 96 1009.3
20260904074619 22 245 0.0 0.0 0.00 0.51 0.03 96 1009.3
20260904074519 22 245 0.0 0.0 0.00 0.51 0.03 96 1009.5
20260904074412 22 245 0.0 0.0 0.00 0.51 0.03 96 1009.3
20260904074312 22 245 0.0 0.0 0.00 0.51 0.03 96 1009.2
20260904074224 22 245 0.0 0.0 0.00 0.51 0.03 96 1009.2
20260904074220 22 245 0.0 0.0 0.00 0.51 0.03 96 1009.2
20260904074051 22 245 0.0 0.0 0.00 0.51 0.03 96 1009.2
20260904074019 22 245 0.0 0.0 0.00 0.51 0.03 96 1009.4
20260904074010 22 245 0.0 0.0 0.00 0.51 0.03 96 1009.2
20260904073911 22 245 0.0 0.0 0.00 0.53 0.03 96 1009.2
20260904073826 22 245 0.0 0.0 0.00 0.56 0.03 96 1009.1
20260904073821 22 245 0.0 0.0 0.00 0.56 0.03 96 1009.1
20260904073817 22 245 0.0 0.0 0.00 0.56 0.03 96 1009.2
20260904073808 22 245 0.0 0.0 0.00 0.56 0.03 96 1009.1
20260904073518 22 245 0.0 0.0 0.00 0.56 0.03 96 1009.4
20260904073510 22 245 0.0 0.0 0.00 0.56 0.03 96 1009.1
20260904073409 22 245 0.0 0.0 0.00 0.56 0.03 96 1009.2
20260904073309 22 245 0.0 0.0 0.00 0.56 0.03 96 1009.2
20260904073209 22 245 0.0 0.0 0.00 0.56 0.03 96 1009.2
20260904073123 22 245 0.0 0.0 0.00 0.56 0.03 96 1009.2
20260904073115 22 245 0.0 0.0 0.00 0.56 0.03 96 1009.2
20260904073018 22 245 0.0 0.0 0.00 0.56 0.03 96 1009.4
20260904072908 22 245 0.0 0.0 0.00 0.56 0.03 96 1009.2
20260904072807 22 245 0.0 0.0 0.00 0.56 0.03 96 1009.2
20260904072719 22 245 0.0 0.0 0.00 0.56 0.03 96 1009.1
20260904072714 22 245 0.0 0.0 0.00 0.56 0.03 96 1009.2
20260904072549 22 245 0.0 0.0 0.00 0.56 0.03 96 1009.1
20260904072518 22 245 0.0 0.0 0.00 0.56 0.03 96 1009.4
20260904072505 22 245 0.0 0.0 0.00 0.56 0.03 96 1009.2
20260904072404 22 245 0.0 0.0 0.00 0.56 0.03 96 1009.1
20260904072312 22 245 0.0 0.0 0.00 0.56 0.03 96 1009.1
20260904072306 22 245 0.0 0.0 0.00 0.56 0.03 96 1009.1
20260904072204 22 245 0.0 0.0 0.00 0.56 0.03 96 1009.1
20260904072155 22 245 0.0 0.0 0.00 0.56 0.03 96 1009.1
20260904072034 22 245 0.0 0.0 0.00 0.56 0.03 96 1009.2
20260904072002 22 245 0.0 0.0 0.00 0.56 0.03 96 1009.0
20260904071902 22 245 0.0 0.0 0.00 0.56 0.03 96 1009.0
20260904071815 22 245 0.0 0.0 0.00 0.56 0.03 96 1009.0
20260904071801 22 245 0.0 0.0 0.00 0.56 0.03 96 1009.0
20260904071703 22 245 0.0 0.0 0.00 0.56 0.03 96 1008.9
20260904071654 22 245 0.0 0.0 0.00 0.56 0.03 96 1009.0
20260904071519 22 245 0.0 0.0 0.00 0.56 0.03 96 1009.1
20260904071501 22 245 0.0 0.0 0.00 0.56 0.03 96 1008.9
20260904071415 22 245 0.0 0.0 0.00 0.56 0.03 96 1008.8
20260904071409 22 245 0.0 0.0 0.00 0.56 0.03 96 1008.9
20260904071159 22 245 0.0 0.0 0.00 0.56 0.03 96 1008.8
20260904071119 22 245 0.0 0.0 0.00 0.56 0.03 96 1008.8
20260904071107 22 245 0.0 0.0 0.00 0.56 0.03 96 1008.8
20260904071019 22 245 0.0 0.0 0.00 0.56 0.03 96 1009.0
20260904070857 22 245 0.0 0.0 0.00 0.56 0.03 96 1008.7
20260904070811 23 245 0.0 0.0 0.00 0.56 0.03 96 1008.7
20260904070806 22 245 0.0 0.0 0.00 0.56 0.03 96 1008.7
20260904070546 22 245 0.0 0.0 0.00 0.56 0.03 96 1008.6
20260904070519 22 245 0.0 0.0 0.00 0.56 0.03 96 1008.8
20260904070456 22 245 0.0 0.0 0.00 0.56 0.03 96 1008.6
20260904070355 22 245 0.0 0.0 0.00 0.56 0.03 96 1008.6
20260904070309 22 245 0.0 0.0 0.00 0.56 0.03 96 1008.6
20260904070254 22 245 0.0 0.0 0.00 0.56 0.03 96 1008.6
20260904070202 23 245 0.0 0.0 0.00 0.56 0.03 96 1008.5
20260904070153 23 245 0.0 0.0 0.00 0.56 0.03 96 1008.6
20260904070019 23 245 0.0 0.0 0.00 0.56 0.03 96 1008.8
20260904065953 23 245 0.0 0.0 0.00 0.56 0.03 96 1008.6
20260904065851 23 245 0.0 0.0 0.00 0.56 0.03 96 1008.6
20260904065751 23 245 0.0 0.0 0.00 0.56 0.03 96 1008.5
20260904065650 23 245 0.0 0.0 0.00 0.56 0.03 96 1008.5
20260904065611 23 245 0.0 0.0 0.00 0.56 0.03 96 1008.5
20260904065519 23 245 0.0 0.0 0.00 0.56 0.03 96 1008.7
20260904065459 23 245 0.0 0.0 0.00 0.56 0.03 96 1008.5
20260904065249 23 245 0.0 0.0 0.00 0.56 0.03 95 1008.4
20260904065149 23 245 0.0 0.0 0.00 0.56 0.03 95 1008.4
20260904065046 23 245 0.0 0.0 0.00 0.56 0.03 95 1008.4
20260904065019 23 245 0.0 0.0 0.00 0.56 0.03 95 1008.5
20260904064948 23 245 0.0 0.0 0.00 0.56 0.03 95 1008.3
20260904064847 23 245 0.0 0.0 0.00 0.56 0.03 95 1008.3
20260904064813 23 245 0.0 0.0 0.00 0.56 0.03 95 1008.3
20260904064747 23 245 0.0 0.0 0.00 0.56 0.03 95 1008.4
20260904064702 23 244 0.0 0.0 0.00 0.56 0.03 95 1008.4
20260904064653 23 245 0.0 0.0 0.00 0.56 0.03 95 1008.3
20260904064518 23 245 0.0 0.0 0.00 0.56 0.03 95 1008.5
20260904064447 23 245 0.0 0.0 0.00 0.56 0.03 95 1008.3
20260904064346 23 245 0.0 0.0 0.00 0.56 0.03 95 1008.3
20260904064245 23 245 0.0 0.0 0.00 0.56 0.03 95 1008.3
20260904064145 23 245 0.0 0.0 0.00 0.56 0.03 95 1008.3
20260904064044 23 245 0.0 0.0 0.00 0.56 0.03 95 1008.4
20260904064019 23 245 0.0 0.0 0.00 0.56 0.03 95 1008.6
20260904063944 23 245 0.0 0.0 0.00 0.56 0.03 95 1008.4
20260904063843 23 245 0.0 0.0 0.00 0.56 0.03 95 1008.4
20260904063742 23 245 0.0 0.0 0.00 0.56 0.03 95 1008.4
20260904063657 23 245 0.0 0.0 0.00 0.56 0.03 95 1008.3
20260904063648 23 245 0.0 0.0 0.00 0.56 0.03 95 1008.4
20260904063519 23 245 0.0 0.0 0.00 0.56 0.03 95 1008.6
20260904063441 23 245 0.0 0.0 0.00 0.56 0.03 95 1008.4
20260904063421 23 245 0.0 0.0 0.00 0.56 0.03 95 1008.4
20260904063416 23 245 0.0 0.0 0.00 0.56 0.03 95 1008.3
20260904063411 23 245 0.0 0.0 0.00 0.56 0.03 95 1008.4
20260904063252 23 245 0.0 0.0 0.00 0.56 0.03 95 1008.4
20260904063019 23 245 0.0 0.0 0.00 0.56 0.03 95 1008.4
20260904062937 23 245 0.0 0.0 0.00 0.56 0.03 95 1008.2
20260904062837 23 245 0.0 0.0 0.00 0.56 0.03 95 1008.2
20260904062737 23 245 0.0 0.0 0.00 0.56 0.03 95 1008.1
20260904062635 23 245 0.0 0.0 0.00 0.56 0.03 95 1008.1
20260904062536 23 245 0.0 0.0 0.00 0.56 0.03 95 1008.1
20260904062519 23 245 0.0 0.0 0.00 0.56 0.03 95 1008.4
20260904062434 23 244 0.0 0.0 0.00 0.56 0.03 95 1008.2
20260904062334 23 245 0.0 0.0 0.00 0.56 0.03 95 1008.2
20260904062324 23 245 0.0 0.0 0.00 0.56 0.03 95 1008.3
20260904062317 23 245 0.0 0.0 0.00 0.56 0.03 95 1008.3
20260904062313 23 245 0.0 0.0 0.00 0.58 0.03 95 1008.4
20260904062306 23 245 0.0 0.0 0.00 0.56 0.03 95 1008.3
20260904062042 23 245 0.0 0.0 0.00 0.56 0.03 95 1008.3
20260904062034 23 245 0.0 0.0 0.00 0.56 0.03 95 1008.6
20260904061832 23 245 0.0 0.0 0.00 0.58 0.03 95 1008.4
20260904061732 23 245 0.0 0.0 0.00 0.58 0.03 95 1008.4
20260904061631 23 245 0.0 0.0 0.00 0.58 0.03 95 1008.4
20260904061534 23 245 0.0 0.0 0.00 0.58 0.03 95 1008.6
20260904061531 23 245 0.0 0.0 0.00 0.58 0.03 95 1008.4
20260904061430 23 245 0.0 0.0 0.00 0.58 0.03 95 1008.4
20260904061341 23 245 0.0 0.0 0.00 0.61 0.03 95 1008.5
20260904061331 23 245 0.0 0.0 0.00 0.61 0.03 95 1008.5
20260904061220 23 245 0.0 0.0 0.00 0.66 0.03 95 1008.5
20260904061214 23 245 0.0 0.0 0.00 0.64 0.03 95 1008.5
20260904061206 23 245 0.0 0.0 0.00 0.64 0.03 95 1008.5
20260904061019 23 245 0.0 0.0 0.00 0.64 0.03 95 1008.7
20260904060836 23 245 0.0 0.0 0.00 0.66 0.03 95 1008.6
20260904060627 23 245 0.0 0.0 0.00 0.66 0.03 95 1008.6
20260904060526 23 245 0.0 0.0 0.00 0.69 0.03 95 1008.6
20260904060519 23 245 0.0 0.0 0.00 0.69 0.03 95 1008.8
20260904060426 23 245 0.0 0.0 0.00 0.69 0.03 95 1008.6
20260904060325 23 245 0.0 0.0 0.00 0.69 0.03 95 1008.7
20260904060225 23 245 0.0 0.0 0.00 0.69 0.03 95 1008.7
20260904060125 23 245 0.0 0.0 0.00 0.69 0.03 95 1008.7
20260904060025 23 245 0.0 0.0 0.00 0.71 0.03 95 1008.8
20260904060019 23 245 0.0 0.0 0.00 0.71 0.03 95 1009.1
20260904055924 23 245 0.0 0.0 0.00 0.71 0.03 95 1008.9
20260904055822 23 245 0.0 0.0 0.00 0.71 0.03 95 1008.8
20260904055722 23 245 0.0 0.0 0.00 0.71 0.03 95 1008.8
20260904055622 23 245 0.0 0.0 0.00 0.74 0.03 95 1008.8
20260904055549 23 245 0.0 0.0 0.00 0.74 0.03 95 1009.1
20260904055521 23 245 0.0 0.0 0.00 0.74 0.03 95 1008.9
20260904055419 23 245 0.0 0.0 0.00 0.74 0.03 95 1008.9
20260904055333 23 245 0.0 0.0 0.00 0.74 0.03 95 1009.0
20260904055328 23 245 0.0 0.0 0.00 0.74 0.03 95 1009.0
20260904055117 23 245 0.0 0.0 0.00 0.76 0.03 95 1009.0
20260904055019 23 245 0.0 0.0 0.00 0.79 0.03 95 1009.3
20260904055017 23 245 0.0 0.0 0.00 0.79 0.03 95 1009.1
20260904054916 23 245 0.0 0.0 0.00 0.84 0.03 95 1009.1
20260904054816 23 245 0.0 0.0 0.00 0.91 0.03 95 1009.1
20260904054715 23 245 0.0 0.0 0.00 0.99 0.03 95 1009.1
20260904054615 23 245 0.0 0.0 0.00 1.12 0.03 95 1009.2
20260904054537 23 245 0.0 0.0 0.00 1.12 0.03 95 1009.3
20260904054519 23 245 0.0 0.0 0.00 1.17 0.03 95 1009.4
20260904054515 23 245 0.0 0.0 0.00 1.22 0.03 95 1009.3
20260904054414 23 245 0.0 0.0 0.00 1.30 0.03 95 1009.2
20260904054328 23 245 0.0 0.0 0.00 1.35 0.03 95 1009.3
20260904054322 23 245 0.0 0.0 0.00 1.35 0.03 95 1009.3
20260904054113 23 245 0.0 0.0 0.00 1.37 0.03 95 1009.4
20260904054019 23 245 0.0 0.0 0.00 1.37 0.03 95 1009.6
20260904054012 23 245 0.0 0.0 0.00 1.40 0.03 95 1009.4
20260904053914 23 245 0.0 0.0 0.00 1.40 0.03 95 1009.4
20260904053813 23 245 0.0 0.0 0.00 1.42 0.03 95 1009.5
20260904053712 23 245 0.0 0.0 0.00 1.42 0.03 95 1009.6
20260904053627 23 245 0.0 0.0 0.00 1.45 0.03 95 1009.7
20260904053618 23 245 0.0 0.0 0.00 1.45 0.03 95 1009.7
20260904053534 23 245 0.0 0.0 0.00 1.45 0.03 95 1009.9
20260904053415 23 245 0.0 0.0 0.00 1.45 0.03 95 1009.7
20260904053406 23 245 0.0 0.0 0.00 1.47 0.03 95 1009.7
20260904053209 23 233 0.0 0.0 0.00 1.47 0.03 95 1009.7
20260904053146 23 232 0.0 0.0 0.00 1.47 0.03 95 1009.7
20260904053034 23 232 0.0 0.0 0.00 1.47 0.03 95 1010.0
20260904053005 23 232 0.0 0.0 0.00 1.47 0.03 95 1009.7
20260904052905 23 232 0.0 0.0 0.00 1.50 0.03 95 1009.8
20260904052806 23 232 0.0 0.0 0.00 1.50 0.03 95 1009.8
20260904052737 23 232 0.0 0.0 0.00 1.52 0.03 95 1009.8
20260904052733 23 232 0.0 0.0 0.00 1.52 0.03 95 1009.7
20260904052728 23 232 0.0 0.0 0.00 1.50 0.03 95 1009.8
20260904052611 23 232 0.0 0.0 0.00 1.52 0.03 95 1009.8
20260904052519 23 232 0.0 0.0 0.00 1.52 0.03 95 1009.9
20260904052404 23 232 0.0 0.0 0.00 1.52 0.03 95 1009.7
20260904052306 23 232 0.0 0.0 0.00 1.52 0.03 95 1009.7
20260904052203 23 232 0.0 0.0 0.00 1.52 0.03 95 1009.7
20260904052034 23 232 0.0 0.0 0.00 1.52 0.03 95 1009.7
20260904052019 23 232 0.0 0.0 0.00 1.52 0.03 95 1009.8
20260904052002 23 232 0.0 0.0 0.00 1.52 0.03 95 1009.6
20260904051902 23 232 0.0 0.0 0.00 1.55 0.03 95 1009.6
20260904051758 23 232 0.0 0.0 0.00 1.55 0.03 95 1009.5
20260904051700 23 232 0.0 0.0 0.00 1.55 0.03 95 1009.5
20260904051533 23 232 0.0 0.0 0.00 1.55 0.03 95 1009.4
20260904051519 23 232 0.0 0.0 0.00 1.55 0.03 95 1009.6
20260904051500 23 232 0.0 0.0 0.00 1.55 0.03 95 1009.4
20260904051358 23 232 0.0 0.0 0.00 1.55 0.03 95 1009.4
20260904051258 23 232 0.0 0.0 0.00 1.55 0.03 95 1009.4
20260904051158 23 232 0.0 0.0 0.00 1.55 0.03 95 1009.4
20260904051031 23 232 0.0 0.0 0.00 1.55 0.03 95 1009.3
20260904051019 23 232 0.0 0.0 0.00 1.55 0.03 95 1009.5
20260904050956 23 232 0.0 0.0 0.00 1.55 0.03 95 1009.3
20260904050856 23 232 0.0 0.0 0.03 1.55 0.03 95 1009.3
20260904050755 23 232 0.0 0.0 0.03 1.55 0.03 95 1009.3
20260904050655 23 232 0.0 0.0 0.03 1.55 0.03 95 1009.3
20260904050613 23 232 0.0 0.0 0.03 1.55 0.03 94 1009.3
20260904050601 23 232 0.0 0.0 0.03 1.55 0.03 94 1009.3
20260904050519 23 232 0.0 0.0 0.03 1.55 0.03 94 1009.5
20260904050354 23 232 0.0 0.0 0.03 1.55 0.03 94 1009.3
20260904050252 23 232 0.0 0.0 0.03 1.55 0.03 94 1009.2
20260904050206 23 232 0.0 0.0 0.03 1.55 0.03 94 1009.2
20260904050201 23 232 0.0 0.0 0.03 1.55 0.03 94 1009.2
20260904050029 23 232 0.0 0.0 0.03 1.55 0.03 94 1009.2
20260904050020 23 232 0.0 0.0 0.03 1.55 0.03 94 1009.2
20260904050013 23 232 0.0 0.0 0.03 1.55 0.03 94 1009.2
20260904045749 23 232 0.0 0.0 0.03 1.55 0.03 94 1009.2
20260904045649 23 232 0.0 0.0 0.03 1.55 0.03 94 1009.1
20260904045635 23 232 0.0 0.0 0.03 1.55 0.03 94 1009.0
20260904045519 23 232 0.0 0.0 0.03 1.55 0.03 94 1009.2
20260904045447 23 232 0.0 0.0 0.03 1.55 0.03 94 1009.0
20260904045400 23 232 0.0 0.0 0.03 1.55 0.03 94 1009.0
20260904045356 23 232 0.0 0.0 0.03 1.55 0.03 94 1009.0
20260904045146 23 232 0.0 0.0 0.03 1.55 0.03 94 1009.0
20260904045025 23 232 0.0 0.0 0.03 1.55 0.03 94 1009.0
20260904045019 23 232 0.0 0.0 0.03 1.55 0.03 94 1009.2
20260904044946 23 232 0.0 0.0 0.03 1.55 0.03 94 1009.0
20260904044845 23 232 0.0 0.0 0.03 1.55 0.03 94 1009.0
20260904044817 23 232 0.0 0.0 0.03 1.55 0.03 94 1009.1
20260904044745 23 232 0.0 0.0 0.03 1.55 0.03 94 1009.0
20260904044714 23 232 0.0 0.0 0.03 1.55 0.03 94 1009.1
20260904044708 23 232 0.0 0.0 0.03 1.55 0.03 94 1009.1
20260904044659 23 232 0.0 0.0 0.03 1.55 0.03 94 1009.1
20260904044534 23 232 0.0 0.0 0.03 1.55 0.03 94 1009.3
20260904044344 23 232 0.0 0.0 0.03 1.55 0.03 94 1009.1
20260904044248 23 232 0.0 0.0 0.03 1.55 0.03 94 1009.0
20260904044244 23 232 0.0 0.0 0.03 1.55 0.03 94 1009.0
20260904044143 23 232 0.0 0.0 0.03 1.55 0.03 94 1009.0
20260904044131 23 232 0.0 0.0 0.03 1.55 0.03 94 1009.0
20260904044019 23 232 0.0 0.0 0.03 1.55 0.03 94 1009.2
20260904044017 23 232 0.0 0.0 0.03 1.55 0.03 94 1009.0
20260904044012 23 232 0.0 0.0 0.03 1.55 0.03 94 1009.0
20260904043749 23 232 0.0 0.0 0.03 1.55 0.03 94 1009.1
20260904043523 23 232 0.0 0.0 0.03 1.55 0.03 94 1009.1
20260904043519 23 232 0.0 0.0 0.03 1.55 0.03 94 1009.3
20260904043439 23 232 0.0 0.0 0.03 1.55 0.03 94 1009.1
20260904043339 23 232 0.0 0.0 0.03 1.55 0.03 94 1009.1
20260904043251 23 232 0.0 0.0 0.03 1.55 0.03 94 1009.1
20260904043247 23 232 0.0 0.0 0.03 1.55 0.03 94 1009.0
20260904043057 23 232 0.0 0.0 0.03 1.55 0.03 94 1009.1
20260904043044 23 232 0.0 0.0 0.03 1.55 0.03 94 1009.1
20260904043019 23 232 0.0 0.0 0.03 1.55 0.03 94 1009.3
20260904042836 23 232 0.0 0.0 0.03 1.55 0.03 94 1009.1
20260904042736 23 232 0.0 0.0 0.03 1.55 0.03 94 1009.2
20260904042703 23 232 0.0 0.0 0.03 1.55 0.03 94 1009.2
20260904042542 23 232 0.0 0.0 0.03 1.55 0.03 94 1009.2
20260904042519 23 232 0.0 0.0 0.03 1.55 0.03 94 1009.4
20260904042333 23 232 0.0 0.0 0.03 1.55 0.03 94 1009.3
20260904042233 23 232 0.0 0.0 0.03 1.55 0.03 94 1009.3
20260904042133 23 232 0.0 0.0 0.03 1.55 0.03 94 1009.3
20260904042019 23 232 0.0 0.0 0.03 1.55 0.03 94 1009.6
20260904041932 23 232 0.0 0.0 0.03 1.55 0.03 94 1009.4
20260904041832 23 232 0.0 0.0 0.03 1.55 0.03 94 1009.4
20260904041731 23 232 0.0 0.0 0.03 1.55 0.03 94 1009.5
20260904041644 23 232 0.0 0.0 0.03 1.55 0.03 94 1009.6
20260904041640 23 232 0.0 0.0 0.03 1.55 0.03 94 1009.6
20260904041519 23 232 0.0 0.0 0.03 1.55 0.03 94 1009.8
20260904041517 23 232 0.0 0.0 0.03 1.55 0.03 94 1009.6
20260904041430 23 232 0.0 0.0 0.03 1.55 0.03 94 1009.6
20260904041228 23 232 0.0 0.0 0.03 1.55 0.03 94 1009.8
20260904041128 23 232 0.0 0.0 0.03 1.55 0.03 94 1009.8
20260904041045 23 232 0.0 0.0 0.03 1.55 0.03 94 1009.8
20260904041033 23 232 0.0 0.0 0.03 1.55 0.03 94 1009.8
20260904041019 23 232 0.0 0.0 0.03 1.55 0.03 94 1010.0
20260904040827 23 232 0.0 0.0 0.00 1.52 0.00 93 1009.8
20260904040725 23 232 0.0 0.0 0.00 1.52 0.00 93 1009.8
20260904040625 23 232 0.0 0.0 0.00 1.52 0.00 93 1009.9
20260904040544 23 232 0.0 0.0 0.00 1.52 0.00 93 1009.8
20260904040531 23 232 0.0 0.0 0.00 1.52 0.00 93 1009.9
20260904040519 23 232 0.0 0.0 0.00 1.52 0.00 93 1010.0
20260904040324 23 232 0.0 0.0 0.00 1.52 0.00 93 1009.8
20260904040223 23 232 0.0 0.0 0.00 1.52 0.00 93 1009.8
20260904040136 23 232 0.0 0.0 0.00 1.52 0.00 93 1009.8
20260904040132 23 232 0.0 0.0 0.00 1.52 0.00 93 1009.8
20260904040019 23 232 0.0 0.0 0.00 1.52 0.00 93 1010.0
20260904040012 23 232 0.0 0.0 0.00 1.52 0.00 93 1009.8
20260904035922 23 232 0.0 0.0 0.00 1.52 1.52 93 1009.8
20260904035821 23 232 0.0 0.0 0.00 1.52 1.52 93 1009.8
20260904035720 23 232 0.0 0.0 0.00 1.52 1.52 93 1009.8
20260904035620 23 232 0.0 0.0 0.00 1.52 1.52 93 1009.8
20260904035519 23 232 0.0 0.0 0.00 1.52 1.52 93 1010.0
20260904035513 23 232 0.0 0.0 0.00 1.52 1.52 93 1009.9
20260904035430 23 232 0.0 0.0 0.00 1.52 1.52 93 1009.8
20260904035425 23 232 0.0 0.0 0.00 1.52 1.52 93 1009.9
20260904035216 23 232 0.0 0.0 0.00 1.52 1.52 93 1009.8
20260904035115 23 232 0.0 0.0 0.00 1.52 1.52 93 1009.8
20260904035056 23 232 0.0 0.0 0.00 1.52 1.52 93 1009.7
20260904035044 23 232 0.0 0.0 0.00 1.52 1.52 93 1009.8
20260904035019 23 232 0.0 0.0 0.00 1.52 1.52 93 1009.9
20260904034932 23 232 0.0 0.0 0.00 1.52 1.52 93 1009.8
20260904034613 23 232 0.0 0.0 0.00 1.52 1.52 93 1009.7
20260904034546 23 232 0.0 0.0 0.00 1.52 1.52 93 1009.7
20260904034542 23 232 0.0 0.0 0.00 1.52 1.52 93 1009.8
20260904034532 23 232 0.0 0.0 0.00 1.52 1.52 93 1009.7
20260904034519 23 232 0.0 0.0 0.00 1.52 1.52 93 1009.8
20260904034225 23 232 0.0 0.0 0.00 1.52 1.52 93 1009.8
20260904034221 23 232 0.0 0.0 0.00 1.52 1.52 93 1009.8
20260904034049 23 232 0.0 0.0 0.00 1.52 1.52 93 1009.9
20260904034013 23 232 0.0 0.0 0.00 1.52 1.52 93 1009.8
20260904033910 23 232 0.0 0.0 0.00 1.52 1.52 93 1009.8
20260904033810 23 232 0.0 0.0 0.00 1.52 1.52 93 1009.8
20260904033708 23 232 0.0 0.0 0.00 1.52 1.52 93 1009.8
20260904033608 23 232 0.0 0.0 0.00 1.52 1.52 93 1009.8
20260904033519 23 232 0.0 0.0 0.00 1.52 1.52 93 1010.0
20260904033508 23 232 0.0 0.0 0.00 1.52 1.52 93 1009.9
20260904033408 23 232 0.0 0.0 0.00 1.52 1.52 93 1009.9
20260904033306 23 232 0.0 0.0 0.00 1.52 1.52 93 1009.9
20260904033206 23 232 0.0 0.0 0.00 1.52 1.52 93 1009.9
20260904033106 23 232 0.0 0.0 0.00 1.52 1.52 93 1010.0
20260904033019 23 232 0.0 0.0 0.00 1.52 1.52 93 1010.0
20260904033005 23 232 0.0 0.0 0.00 1.52 1.52 93 1009.9
20260904032905 23 232 0.0 0.0 0.00 1.52 1.52 93 1010.0
20260904032803 23 232 0.0 0.0 0.00 1.52 1.52 93 1010.0
20260904032716 23 232 0.0 0.0 0.00 1.52 1.52 93 1010.0
20260904032712 23 232 0.0 0.0 0.00 1.52 1.52 93 1010.0
20260904032519 23 232 0.0 0.0 0.00 1.52 1.52 93 1010.1
20260904032508 23 232 0.0 0.0 0.00 1.52 1.52 93 1010.0
20260904032502 23 232 0.0 0.0 0.00 1.52 1.52 93 1010.0
20260904032402 23 232 0.0 0.0 0.00 1.52 1.52 93 1010.1
20260904032318 23 232 0.0 0.0 0.00 1.52 1.52 93 1010.1
20260904032314 23 232 0.0 0.0 0.00 1.52 1.52 93 1010.1
20260904032310 23 232 0.0 0.0 0.00 1.52 1.52 93 1010.1
20260904032116 23 232 0.0 0.0 0.00 1.52 1.52 93 1010.1
20260904032019 23 232 0.0 0.0 0.00 1.52 1.52 93 1010.3
20260904032000 23 232 0.0 0.0 0.00 1.52 1.52 93 1010.2
20260904031900 23 232 0.0 0.0 0.00 1.52 1.52 93 1010.2
20260904031759 23 232 0.0 0.0 0.00 1.52 1.52 93 1010.2
20260904031659 23 232 0.0 0.0 0.00 1.52 1.52 93 1010.2
20260904031559 23 232 0.0 0.0 0.00 1.52 1.52 93 1010.3
20260904031519 23 232 0.0 0.0 0.00 1.52 1.52 93 1010.4
20260904031506 23 232 0.0 0.0 0.00 1.52 1.52 93 1010.3
20260904031458 23 232 0.0 0.0 0.00 1.52 1.52 93 1010.3
20260904031358 23 232 0.0 0.0 0.00 1.52 1.52 92 1010.3
20260904031258 23 232 0.0 0.0 0.00 1.52 1.52 92 1010.4
20260904031229 23 232 0.0 0.0 0.00 1.52 1.52 92 1010.4
20260904031224 23 232 0.0 0.0 0.00 1.52 1.52 92 1010.4
20260904031019 23 232 0.0 0.0 0.00 1.52 1.52 92 1010.5
20260904030956 23 232 0.0 0.0 0.00 1.52 1.52 92 1010.4
20260904030856 23 232 0.0 0.0 0.00 1.52 1.52 92 1010.4
20260904030756 23 232 0.0 0.0 0.00 1.52 1.52 92 1010.4
20260904030655 23 232 0.0 0.0 0.00 1.52 1.52 92 1010.4
20260904030614 23 232 0.0 0.0 0.00 1.52 1.52 92 1010.4
20260904030600 23 232 0.0 0.0 0.00 1.52 1.52 92 1010.4
20260904030519 23 232 0.0 0.0 0.00 1.52 1.52 92 1010.5
20260904030354 23 232 0.0 0.0 0.00 1.52 1.52 92 1010.4
20260904030253 23 232 0.0 0.0 0.00 1.52 1.52 92 1010.3
20260904030203 23 232 0.0 0.0 0.00 1.52 1.52 92 1010.3
20260904030159 23 232 0.0 0.0 0.00 1.52 1.52 92 1010.3
20260904030019 23 232 0.0 0.0 0.00 1.52 1.52 92 1010.4
20260904030006 23 232 0.0 0.0 0.00 1.52 1.52 92 1010.3
20260904025949 23 232 0.0 0.0 0.00 1.52 1.52 92 1010.3
20260904025848 23 232 0.0 0.0 0.00 1.52 1.52 92 1010.4
20260904025747 23 232 0.0 0.0 0.00 1.52 1.52 92 1010.3
20260904025647 23 232 0.0 0.0 0.00 1.52 1.52 92 1010.4
20260904025547 23 232 0.0 0.0 0.00 1.52 1.52 92 1010.3
20260904025519 23 232 0.0 0.0 0.00 1.52 1.52 92 1010.4
20260904025507 23 232 0.0 0.0 0.00 1.52 1.52 92 1010.3
20260904025446 23 232 0.0 0.0 0.00 1.52 1.52 92 1010.3
20260904025346 23 232 0.0 0.0 0.00 1.52 1.52 92 1010.2
20260904025245 23 232 0.0 0.0 0.00 1.52 1.52 92 1010.3
20260904025145 23 232 0.0 0.0 0.00 1.52 1.52 92 1010.2
20260904025044 23 232 0.0 0.0 0.00 1.52 1.52 92 1010.2
20260904025019 23 232 0.0 0.0 0.00 1.52 1.52 92 1010.3
20260904025005 23 232 0.0 0.0 0.00 1.52 1.52 92 1010.2
20260904024944 23 232 0.0 0.0 0.00 1.52 1.52 92 1010.2
20260904024843 23 232 0.0 0.0 0.00 1.52 1.52 92 1010.2
20260904024743 23 232 0.0 0.0 0.00 1.52 1.52 92 1010.2
20260904024643 23 232 0.0 0.0 0.00 1.52 1.52 92 1010.2
20260904024543 23 232 0.0 0.0 0.00 1.52 1.52 92 1010.2
20260904024519 23 232 0.0 0.0 0.00 1.52 1.52 92 1010.3
20260904024505 23 232 0.0 0.0 0.00 1.52 1.52 92 1010.2
20260904024442 23 232 0.0 0.0 0.00 1.52 1.52 91 1010.2
20260904024348 23 232 0.0 0.0 0.00 1.52 1.52 91 1010.1
20260904024344 23 232 0.0 0.0 0.00 1.52 1.52 91 1010.2
20260904024335 23 232 0.0 0.0 0.00 1.52 1.52 91 1010.2
20260904024222 23 232 0.0 0.0 0.00 1.52 1.52 91 1010.2
20260904024019 23 232 0.0 0.0 0.00 1.52 1.52 91 1010.2
20260904023938 23 232 0.0 0.0 0.00 1.52 1.52 91 1010.1
20260904023837 23 232 0.0 0.0 0.00 1.52 1.52 91 1010.1
20260904023736 23 232 0.0 0.0 0.00 1.52 1.52 91 1010.1
20260904023635 23 232 0.0 0.0 0.00 1.52 1.52 91 1010.0
20260904023549 23 232 0.0 0.0 0.00 1.52 1.52 91 1010.1
20260904023535 23 232 0.0 0.0 0.00 1.52 1.52 91 1010.1
20260904023504 23 232 0.0 0.0 0.00 1.52 1.52 91 1010.0
20260904023435 23 232 0.0 0.0 0.00 1.52 1.52 91 1010.0
20260904023334 23 232 0.0 0.0 0.00 1.52 1.52 91 1010.1
20260904023235 23 232 0.0 0.0 0.00 1.52 1.52 91 1010.0
20260904023134 23 232 0.0 0.0 0.00 1.52 1.52 91 1010.1
20260904023019 23 232 0.0 0.0 0.00 1.52 1.52 91 1010.1
20260904023003 23 232 0.0 0.0 0.00 1.52 1.52 91 1010.0
20260904022934 23 232 0.0 0.0 0.00 1.52 1.52 91 1010.0
20260904022832 23 232 0.0 0.0 0.00 1.52 1.52 91 1010.0
20260904022732 23 232 0.0 0.0 0.00 1.52 1.52 91 1010.0
20260904022631 23 232 0.0 0.0 0.00 1.52 1.52 91 1010.0
20260904022519 23 232 0.0 0.0 0.00 1.52 1.52 91 1010.1
20260904022502 23 232 0.0 0.0 0.00 1.52 1.52 91 1010.0
20260904022443 23 232 0.0 0.0 0.00 1.52 1.52 91 1010.1
20260904022439 23 232 0.0 0.0 0.00 1.52 1.52 91 1010.0
20260904022230 23 232 0.0 0.0 0.00 1.52 1.52 91 1010.1
20260904022211 23 232 0.0 0.0 0.00 1.52 1.52 90 1010.2
20260904022206 23 232 0.0 0.0 0.00 1.52 1.52 90 1010.1
20260904022045 23 232 0.0 0.0 0.00 1.52 1.52 90 1010.2
20260904022019 23 232 0.0 0.0 0.00 1.52 1.52 90 1010.3
20260904021728 23 232 0.0 0.0 0.00 1.52 1.52 90 1010.2
20260904021628 23 232 0.0 0.0 0.00 1.52 1.52 90 1010.2
20260904021526 23 232 0.0 0.0 0.00 1.52 1.52 90 1010.2
20260904021519 23 232 0.0 0.0 0.00 1.52 1.52 90 1010.2
20260904021502 23 232 0.0 0.0 0.00 1.52 1.52 90 1010.1
20260904021426 23 232 0.0 0.0 0.00 1.52 1.52 90 1010.1
20260904021326 23 232 0.0 0.0 0.00 1.52 1.52 90 1010.2
20260904021226 23 232 0.0 0.0 0.00 1.52 1.52 90 1010.3
20260904021126 23 232 0.0 0.0 0.00 1.52 1.52 90 1010.3
20260904021045 23 232 0.0 0.0 0.00 1.52 1.52 90 1010.3
20260904021034 23 232 0.0 0.0 0.00 1.52 1.52 90 1010.4
20260904021032 23 232 0.0 0.0 0.00 1.52 1.52 90 1010.3
20260904020904 23 232 0.0 0.0 0.00 1.52 1.52 90 1010.4
20260904020900 24 232 0.0 0.0 0.00 1.52 1.52 90 1010.3
20260904020856 24 232 0.0 0.0 0.00 1.52 1.52 90 1010.4
20260904020851 23 232 0.0 0.0 0.00 1.52 1.52 90 1010.4
20260904020519 24 232 0.0 0.0 0.00 1.52 1.52 90 1010.5
20260904020501 24 232 0.0 0.0 0.00 1.52 1.52 90 1010.4
20260904020434 24 232 0.0 0.0 0.00 1.52 1.52 90 1010.4
20260904020430 24 232 0.0 0.0 0.00 1.52 1.52 90 1010.4
20260904020221 24 232 0.0 0.0 0.00 1.52 1.52 90 1010.4
20260904020120 24 232 0.0 0.0 0.00 1.52 1.52 90 1010.4
20260904020034 24 232 0.0 0.0 0.00 1.52 1.52 90 1010.6
20260904020003 24 232 0.0 0.0 0.00 1.52 1.52 90 1010.5
20260904015941 24 232 0.0 0.0 0.00 1.52 1.52 90 1010.5
20260904015828 24 232 0.0 0.0 0.00 1.52 1.52 90 1010.5
20260904015617 24 232 0.0 0.0 0.00 1.52 1.52 90 1010.6
20260904015519 24 232 0.0 0.0 0.00 1.52 1.52 90 1010.7
20260904015503 24 232 0.0 0.0 0.00 1.52 1.52 90 1010.6
20260904015416 24 232 0.0 0.0 0.00 1.52 1.52 90 1010.6
20260904015316 24 232 0.0 0.0 0.00 1.52 1.52 90 1010.7
20260904015215 24 232 0.0 0.0 0.00 1.52 1.52 90 1010.7
20260904015115 24 232 0.0 0.0 0.00 1.52 1.52 90 1010.7
20260904015019 24 232 0.0 0.0 0.00 1.52 1.52 89 1010.8
20260904015014 24 232 0.0 0.0 0.00 1.52 1.52 89 1010.7
20260904015002 24 232 0.0 0.0 0.00 1.52 1.52 89 1010.7
20260904014926 24 232 0.0 0.0 0.00 1.52 1.52 89 1010.7
20260904014922 24 232 0.0 0.0 0.00 1.52 1.52 89 1010.7
20260904014712 24 232 0.0 0.0 0.00 1.52 1.52 89 1010.8
20260904014612 24 232 0.0 0.0 0.00 1.52 1.52 89 1010.7
20260904014534 24 232 0.0 0.0 0.00 1.52 1.52 89 1010.7
20260904014512 24 232 0.0 0.0 0.00 1.52 1.52 89 1010.7
20260904014501 24 232 0.0 0.0 0.00 1.52 1.52 89 1010.7
20260904014410 24 232 0.0 0.0 0.00 1.52 1.52 89 1010.7
20260904014310 24 232 0.0 0.0 0.00 1.52 1.52 89 1010.6
20260904014209 24 232 0.0 0.0 0.00 1.52 1.52 89 1010.6
20260904014109 24 232 0.0 0.0 0.00 1.52 1.52 89 1010.5
20260904014023 24 232 0.0 0.0 0.00 1.52 1.52 89 1010.5
20260904014019 24 232 0.0 0.0 0.00 1.52 1.52 89 1010.6
20260904014016 24 232 0.0 0.0 0.00 1.52 1.52 89 1010.6
20260904013807 24 232 0.0 0.0 0.00 1.52 1.52 89 1010.6
20260904013708 24 232 0.0 0.0 0.00 1.52 1.52 89 1010.6
20260904013607 24 232 0.0 0.0 0.00 1.52 1.52 89 1010.6
20260904013519 24 232 0.0 0.0 0.00 1.52 1.52 89 1010.7
20260904013507 24 232 0.0 0.0 0.00 1.52 1.52 89 1010.7
20260904013456 24 232 0.0 0.0 0.00 1.52 1.52 89 1010.7
20260904013406 24 232 0.0 0.0 0.00 1.52 1.52 89 1010.6
20260904013305 24 232 0.0 0.0 0.00 1.52 1.52 89 1010.7
20260904013205 24 232 0.0 0.0 0.00 1.52 1.52 89 1010.7
20260904013105 24 232 0.0 0.0 0.00 1.52 1.52 89 1010.7
20260904013019 24 232 0.0 0.0 0.00 1.52 1.52 89 1010.7
20260904012954 24 232 0.0 0.0 0.00 1.52 1.52 89 1010.7
20260904012904 24 232 0.0 0.0 0.00 1.52 1.52 89 1010.6
20260904012803 24 232 0.0 0.0 0.00 1.52 1.52 89 1010.7
20260904012703 24 232 0.0 0.0 0.00 1.52 1.52 89 1010.6
20260904012601 24 232 0.0 0.0 0.00 1.52 1.52 89 1010.7
20260904012519 24 232 0.0 0.0 0.00 1.52 1.52 89 1010.6
20260904012455 24 232 0.0 0.0 0.00 1.52 1.52 89 1010.6
20260904012414 24 232 0.0 0.0 0.00 1.52 1.52 89 1010.7
20260904012410 24 232 0.0 0.0 0.00 1.52 1.52 89 1010.6
20260904012200 24 232 0.0 0.0 0.00 1.52 1.52 89 1010.6
20260904012100 24 232 0.0 0.0 0.00 1.52 1.52 89 1010.6
20260904012034 24 232 0.0 0.0 0.00 1.52 1.52 89 1010.6
20260904012019 24 232 0.0 0.0 0.00 1.52 1.52 89 1010.7
20260904012007 24 232 0.0 0.0 0.00 1.52 1.52 89 1010.6
20260904011759 24 232 0.0 0.0 0.00 1.52 1.52 89 1010.7
20260904011658 24 232 0.0 0.0 0.00 1.52 1.52 89 1010.7
20260904011558 24 232 0.0 0.0 0.00 1.52 1.52 89 1010.8
20260904011519 24 232 0.0 0.0 0.00 1.52 1.52 89 1010.7
20260904011517 24 232 0.0 0.0 0.00 1.52 1.52 89 1010.7
20260904011405 24 232 0.0 0.0 0.00 1.52 1.52 89 1010.8
20260904011155 24 232 0.0 0.0 0.00 1.52 1.52 89 1010.8
20260904011055 24 232 0.0 0.0 0.00 1.52 1.52 89 1010.8
20260904011019 25 232 0.0 0.0 0.00 1.52 1.52 89 1010.9
20260904011014 24 232 0.0 0.0 0.00 1.52 1.52 89 1010.9
20260904011004 24 232 0.0 0.0 0.00 1.52 1.52 89 1010.9
20260904010753 24 232 0.0 0.0 0.00 1.52 1.52 88 1010.9
20260904010706 24 232 0.0 0.0 0.00 1.52 1.52 88 1011.0
20260904010702 25 232 0.0 0.0 0.00 1.52 1.52 88 1011.0
20260904010549 25 232 0.0 0.0 0.00 1.52 1.52 88 1011.0
20260904010452 25 232 0.0 0.0 0.00 1.52 1.52 88 1011.0
20260904010400 25 232 0.0 0.0 0.00 1.52 1.52 88 1011.0
20260904010351 25 232 0.0 0.0 0.00 1.52 1.52 88 1011.0
20260904010240 25 232 0.0 0.0 0.00 1.52 1.52 88 1010.9
20260904010234 25 232 0.0 0.0 0.00 1.52 1.52 88 1011.0
20260904010115 25 232 0.0 0.0 0.00 1.52 1.52 88 1010.9
20260904010019 25 232 0.0 0.0 0.00 1.52 1.52 88 1010.9
20260904005857 25 232 0.0 0.0 0.00 1.52 1.52 87 1010.9
20260904005647 25 232 0.0 0.0 0.00 1.52 1.52 87 1010.7
20260904005549 25 232 0.0 0.0 0.00 1.52 1.52 87 1010.7
20260904005547 25 232 0.0 0.0 0.00 1.52 1.52 87 1010.7
20260904005446 25 232 0.0 0.0 0.00 1.52 1.52 87 1010.7
20260904005346 25 232 0.0 0.0 0.00 1.52 1.52 87 1010.7
20260904005246 25 232 0.0 0.0 0.00 1.52 1.52 87 1010.7
20260904005145 25 232 0.0 0.0 0.00 1.52 1.52 87 1010.8
20260904005045 25 232 0.0 0.0 0.00 1.52 1.52 87 1010.8
20260904005019 25 232 0.0 0.0 0.00 1.52 1.52 87 1010.9
20260904004944 25 232 0.0 0.0 0.00 1.52 1.52 87 1010.9
20260904004857 25 232 0.0 0.0 0.00 1.52 1.52 87 1010.9
20260904004853 25 232 0.0 0.0 0.00 1.52 1.52 87 1010.9
20260904004643 25 232 0.0 0.0 0.00 1.52 1.52 87 1010.9
20260904004543 25 232 0.0 0.0 0.00 1.52 1.52 87 1010.8
20260904004519 25 232 0.0 0.0 0.00 1.52 1.52 87 1010.8
20260904004500 25 232 0.0 0.0 0.00 1.52 1.52 87 1010.8
20260904004449 25 232 0.0 0.0 0.00 1.52 1.52 87 1010.8
20260904004239 25 232 0.0 0.0 0.00 1.52 1.52 87 1010.8
20260904004139 25 232 0.0 0.0 0.00 1.52 1.52 87 1010.8
20260904004039 25 232 0.0 0.0 0.00 1.52 1.52 87 1010.8
20260904004019 25 232 0.0 0.0 0.00 1.52 1.52 87 1010.7
20260904003938 25 232 0.0 0.0 0.00 1.52 1.52 87 1010.7
20260904003835 25 232 0.0 0.0 0.00 1.52 1.52 87 1010.7
20260904003735 25 232 0.0 0.0 0.00 1.52 1.52 86 1010.8
20260904003648 25 232 0.0 0.0 0.00 1.52 1.52 86 1010.8
20260904003644 25 232 0.0 0.0 0.00 1.52 1.52 86 1010.8
20260904003519 25 232 0.0 0.0 0.00 1.52 1.52 86 1010.8
20260904003434 25 232 0.0 0.0 0.00 1.52 1.52 86 1010.8
20260904003345 25 232 0.0 0.0 0.00 1.52 1.52 86 1010.8
20260904003341 25 232 0.0 0.0 0.00 1.52 1.52 86 1010.8
20260904003132 25 232 0.0 0.0 0.00 1.52 1.52 86 1010.8
20260904003031 25 232 0.0 0.0 0.00 1.52 1.52 86 1010.9
20260904003019 25 232 0.0 0.0 0.00 1.52 1.52 86 1010.8
20260904002931 25 232 0.0 0.0 0.00 1.52 1.52 86 1010.8
20260904002843 25 232 0.0 0.0 0.00 1.52 1.52 86 1010.8
20260904002839 25 232 0.0 0.0 0.00 1.52 1.52 86 1010.8
20260904002702 25 232 0.0 0.0 0.00 1.52 1.52 86 1010.7
20260904002657 25 232 0.0 0.0 0.00 1.52 1.52 86 1010.7
20260904002652 25 232 0.0 0.0 0.00 1.52 1.52 86 1010.8
20260904002534 25 232 0.0 0.0 0.00 1.52 1.52 86 1010.7
20260904002520 25 232 0.0 0.0 0.00 1.52 1.52 86 1010.7
20260904002327 25 232 0.0 0.0 0.00 1.52 1.52 86 1010.6
20260904002227 25 232 0.0 0.0 0.00 1.52 1.52 86 1010.6
20260904002126 25 232 0.0 0.0 0.00 1.52 1.52 86 1010.5
20260904002026 25 232 0.0 0.0 0.00 1.52 1.52 85 1010.4
20260904002019 25 232 0.0 0.0 0.00 1.52 1.52 85 1010.4
20260904001925 25 232 0.0 0.0 0.00 1.52 1.52 85 1010.4
20260904001825 25 232 0.0 0.0 0.00 1.52 1.52 85 1010.4
20260904001725 25 232 0.0 0.0 0.00 1.52 1.52 85 1010.4
20260904001624 25 232 0.0 0.0 0.00 1.52 1.52 85 1010.4
20260904001525 25 232 0.0 0.0 0.00 1.52 1.52 85 1010.3
20260904001519 25 232 0.0 0.0 0.00 1.52 1.52 85 1010.3
20260904001425 25 232 0.0 0.0 0.00 1.52 1.52 85 1010.3
20260904001323 25 232 0.0 0.0 0.00 1.52 1.52 84 1010.3
20260904001305 25 232 0.0 0.0 0.00 1.52 1.52 84 1010.3
20260904001259 25 232 0.0 0.0 0.00 1.52 1.52 84 1010.2
20260904001146 25 232 0.0 0.0 0.00 1.52 1.52 84 1010.3
20260904001029 25 232 0.0 0.0 0.00 1.52 1.52 84 1010.3
20260904001019 25 232 0.0 0.0 0.00 1.52 1.52 84 1010.3
20260904000819 25 232 0.0 0.0 0.00 1.52 1.52 84 1010.3
20260904000718 25 232 0.0 0.0 0.00 1.52 1.52 84 1010.3
20260904000618 25 232 0.0 0.0 0.00 1.52 1.52 84 1010.3
20260904000519 25 232 0.0 0.0 0.00 1.52 1.52 84 1010.2
20260904000440 25 232 0.0 0.0 0.00 1.52 1.52 84 1010.2
20260904000418 25 232 0.0 0.0 0.00 1.52 1.52 83 1010.2
20260904000318 25 232 0.0 0.0 0.00 1.52 1.52 83 1010.2
20260904000215 25 232 0.0 0.0 0.00 1.52 1.52 83 1010.2
20260904000203 26 232 0.0 0.0 0.00 1.52 1.52 82 1010.1
20260904000115 25 232 0.0 0.0 0.00 1.52 1.52 83 1010.2
20260904000048 26 232 0.0 0.0 0.00 1.52 1.52 83 1010.2
20260904000019 26 232 0.0 0.0 0.00 1.52 1.52 82 1010.1
20260903235914 26 232 0.0 0.0 0.00 1.52 1.52 82 1010.1
20260903235812 26 232 0.0 0.0 0.00 1.52 1.52 82 1010.1
20260903235712 26 232 0.0 0.0 0.00 1.52 1.52 82 1010.1
20260903235610 26 232 0.0 0.0 0.00 1.52 1.52 82 1010.0
20260903235519 26 232 0.0 0.0 0.00 1.52 1.52 82 1010.1
20260903235510 26 232 0.0 0.0 0.00 1.52 1.52 82 1010.1
20260903235410 26 232 0.0 0.0 0.00 1.52 1.52 82 1010.1
20260903235310 26 232 0.0 0.0 0.00 1.52 1.52 81 1010.1
20260903235209 26 232 0.0 0.0 0.00 1.52 1.52 81 1010.2
20260903235108 26 232 0.0 0.0 0.00 1.52 1.52 81 1010.1
20260903235019 26 232 0.0 0.0 0.00 1.52 1.52 81 1010.1
20260903235008 26 232 0.0 0.0 0.00 1.52 1.52 81 1010.1
20260903234939 26 232 0.0 0.0 0.00 1.52 1.52 81 1010.1
20260903234906 26 232 0.0 0.0 0.00 1.52 1.52 81 1010.1
20260903234806 26 232 0.0 0.0 0.00 1.52 1.52 81 1010.1
20260903234720 26 232 0.0 0.0 0.00 1.52 1.52 81 1010.1
20260903234715 26 232 0.0 0.0 0.00 1.52 1.52 81 1010.1
20260903234519 26 232 0.0 0.0 0.00 1.52 1.52 80 1010.1
20260903234506 26 232 0.0 0.0 0.00 1.52 1.52 80 1010.1
20260903234437 26 232 0.0 0.0 0.00 1.52 1.52 80 1010.1
20260903234405 26 232 0.0 0.0 0.00 1.52 1.52 80 1010.2
20260903234305 26 232 0.0 0.0 0.00 1.52 1.52 81 1010.3
20260903234204 26 232 0.0 0.0 0.00 1.52 1.52 81 1010.3
20260903234152 26 232 0.0 0.0 0.00 1.52 1.52 81 1010.4
20260903234049 27 232 0.0 0.0 0.00 1.52 1.52 80 1010.3
20260903234030 26 232 0.0 0.0 0.00 1.52 1.52 80 1010.3
20260903233810 27 232 0.0 0.0 0.00 1.52 1.52 80 1010.4
20260903233616 27 232 0.0 0.0 0.00 1.52 1.52 80 1010.4
20260903233610 27 232 0.0 0.0 0.00 1.52 1.52 80 1010.4
20260903233519 27 232 0.0 0.0 0.00 1.52 1.52 80 1010.4
20260903233435 27 232 0.0 0.0 0.00 1.52 1.52 80 1010.4
20260903233401 27 232 0.0 0.0 0.00 1.52 1.52 80 1010.4
20260903233300 27 232 0.0 0.0 0.00 1.52 1.52 80 1010.4
20260903233200 27 232 0.0 0.0 0.00 1.52 1.52 80 1010.4
20260903233059 27 232 0.0 0.0 0.00 1.52 1.52 80 1010.4
20260903233034 27 232 0.0 0.0 0.00 1.52 1.52 80 1010.4
20260903232933 27 232 0.0 0.0 0.00 1.52 1.52 80 1010.4
20260903232858 27 232 0.0 0.0 0.00 1.52 1.52 79 1010.5
20260903232758 27 232 0.0 0.0 0.00 1.52 1.52 79 1010.4
20260903232702 27 232 0.0 0.0 0.00 1.52 1.52 79 1010.4
20260903232658 27 232 0.0 0.0 0.00 1.52 1.52 79 1010.4
20260903232557 27 232 0.0 0.0 0.00 1.52 1.52 79 1010.4
20260903232539 27 232 0.0 0.0 0.00 1.52 1.52 79 1010.4
20260903232519 27 232 0.0 0.0 0.00 1.52 1.52 79 1010.4
20260903232356 27 232 0.0 0.0 0.00 1.52 1.52 79 1010.3
20260903232255 27 232 0.0 0.0 0.00 1.52 1.52 79 1010.3
20260903232157 27 232 0.0 0.0 0.00 1.52 1.52 78 1010.3
20260903232150 27 232 0.0 0.0 0.00 1.52 1.52 78 1010.4
20260903232055 27 232 0.0 0.0 0.00 1.52 1.52 78 1010.4
20260903232038 27 232 0.0 0.0 0.00 1.52 1.52 78 1010.4
20260903232019 27 232 0.0 0.0 0.00 1.52 1.52 78 1010.3
20260903231853 27 232 0.0 0.0 0.00 1.52 1.52 77 1010.4
20260903231753 27 232 0.0 0.0 0.00 1.52 1.52 77 1010.4
20260903231653 28 232 0.0 0.0 0.00 1.52 1.52 77 1010.4
20260903231552 28 232 0.0 0.0 0.00 1.52 1.52 77 1010.4
20260903231519 28 232 0.0 0.0 0.00 1.52 1.52 77 1010.3
20260903231430 28 232 0.0 0.0 0.00 1.52 1.52 76 1010.4
20260903231351 28 232 0.0 0.0 0.00 1.52 1.52 76 1010.3
20260903231251 28 232 0.0 0.0 0.00 1.52 1.52 76 1010.3
20260903231153 28 232 0.0 0.0 0.00 1.52 1.52 76 1010.3
20260903231146 28 232 0.0 0.0 0.00 1.52 1.52 76 1010.3
20260903231051 28 232 0.0 0.0 0.00 1.52 1.52 76 1010.3
20260903231035 28 232 0.0 0.0 0.00 1.52 1.52 76 1010.3
20260903230848 28 232 0.0 0.0 0.00 1.52 1.52 75 1010.4
20260903230748 28 232 0.0 0.0 0.00 1.52 1.52 75 1010.3
20260903230648 28 232 0.0 0.0 0.00 1.52 1.52 74 1010.4
20260903230547 28 232 0.0 0.0 0.00 1.52 1.52 74 1010.5
20260903230519 28 232 0.0 0.0 0.00 1.52 1.52 74 1010.3
20260903230427 28 232 0.0 0.0 0.00 1.52 1.52 74 1010.4
20260903230408 28 232 0.0 0.0 0.00 1.52 1.52 74 1010.4
20260903230254 28 232 0.0 0.0 0.00 1.52 1.52 74 1010.3
20260903230058 28 232 0.0 0.0 0.00 1.52 1.52 73 1010.1
20260903230052 28 232 0.0 0.0 0.00 1.52 1.52 73 1010.2
20260903230019 28 232 0.0 0.0 0.00 1.52 1.52 73 1010.0
20260903225928 28 232 0.0 0.0 0.00 1.52 1.52 72 1010.1
20260903225842 28 232 0.0 0.0 0.00 1.52 1.52 72 1010.1
20260903225741 28 232 0.0 0.0 0.00 1.52 1.52 72 1010.1
20260903225652 29 232 0.0 0.0 0.00 1.52 1.52 71 1010.1
20260903225641 29 232 0.0 0.0 0.00 1.52 1.52 72 1010.1
20260903225543 29 232 0.0 0.0 0.00 1.52 1.52 71 1010.1
20260903225534 29 232 0.0 0.0 0.00 1.52 1.52 71 1010.1
20260903225519 29 232 0.0 0.0 0.00 1.52 1.52 71 1010.0
20260903225338 29 232 0.0 0.0 0.00 1.52 1.52 71 1010.1
20260903225237 29 232 0.0 0.0 0.00 1.52 1.52 70 1010.1
20260903225149 30 232 0.0 0.0 0.00 1.52 1.52 70 1010.1
20260903225145 29 232 0.0 0.0 0.00 1.52 1.52 71 1010.1
20260903225019 30 232 0.0 0.0 0.00 1.52 1.52 70 1010.0
20260903224927 30 232 0.0 0.0 0.00 1.52 1.52 70 1010.1
20260903224834 30 232 0.0 0.0 0.00 1.52 1.52 70 1010.1
20260903224733 30 232 0.0 0.0 0.00 1.52 1.52 69 1010.2
20260903224633 30 232 0.0 0.0 0.00 1.52 1.52 69 1010.2
20260903224532 30 232 0.0 0.0 0.00 1.52 1.52 68 1010.2
20260903224519 30 232 0.0 0.0 0.00 1.52 1.52 68 1010.1
20260903224427 30 232 0.0 0.0 0.00 1.52 1.52 69 1010.2
20260903224331 30 232 0.0 0.0 0.00 1.52 1.52 68 1010.2
20260903224229 30 232 0.0 0.0 0.00 1.52 1.52 67 1010.2
20260903224129 30 232 0.0 0.0 0.00 1.52 1.52 67 1010.2
20260903224029 30 232 0.0 0.0 0.00 1.52 1.52 67 1010.2
20260903224019 30 232 0.0 0.0 0.00 1.52 1.52 67 1010.1
20260903223928 30 232 0.0 0.0 0.00 1.52 1.52 67 1010.2
20260903223826 30 232 0.0 0.0 0.00 1.52 1.52 66 1010.2
20260903223726 30 288 0.0 0.0 0.00 1.52 1.52 67 1010.0
20260903223624 30 280 0.0 0.0 0.00 1.52 1.52 67 1010.0
20260903223552 30 280 0.0 0.0 0.00 1.52 1.52 67 1009.9
20260903223534 30 280 0.0 0.0 0.00 1.52 1.52 67 1009.7
20260903223433 30 280 0.0 0.0 0.00 1.52 1.52 67 1009.8
20260903223234 30 280 0.0 0.0 0.00 1.52 1.52 66 1009.9
20260903223230 30 280 0.0 0.0 0.00 1.52 1.52 67 1009.9
20260903223034 30 280 0.0 0.0 0.00 1.52 1.52 67 1009.9
20260903223025 30 280 0.0 0.0 0.00 1.52 1.52 67 1009.9
20260903223019 30 280 0.0 0.0 0.00 1.52 1.52 67 1009.8
20260903222833 30 280 0.0 0.0 0.00 1.52 1.52 67 1009.9
20260903222828 30 280 0.0 0.0 0.00 1.52 1.52 67 1009.9
20260903222632 30 280 0.0 0.0 0.00 1.52 1.52 66 1009.8
20260903222627 30 280 0.0 0.0 0.00 1.52 1.52 67 1009.8
20260903222519 30 280 0.0 0.0 0.00 1.52 1.52 66 1009.8
20260903222417 30 280 0.0 0.0 0.00 1.52 1.52 66 1009.9
20260903222316 30 280 0.0 0.0 0.00 1.52 1.52 66 1010.0
20260903222216 30 280 0.0 0.0 0.00 1.52 1.52 66 1010.0
20260903222129 30 290 0.0 0.0 0.00 1.52 1.52 66 1010.0
20260903222124 30 280 0.0 0.0 0.00 1.52 1.52 66 1010.0
20260903222019 30 294 0.0 0.0 0.00 1.52 1.52 66 1009.9
20260903221914 30 294 0.0 0.0 0.00 1.52 1.52 66 1010.0
20260903221814 30 294 0.0 0.0 0.00 1.52 1.52 66 1010.0
20260903221714 30 294 0.0 0.0 0.00 1.52 1.52 66 1010.0
20260903221613 30 294 0.0 0.0 0.00 1.52 1.52 67 1010.0
20260903221534 30 294 0.0 0.0 0.00 1.52 1.52 66 1009.9
20260903221513 30 294 0.0 0.0 0.00 1.52 1.52 66 1010.0
20260903221413 30 294 0.0 0.0 0.00 1.52 1.52 66 1010.0
20260903221312 30 294 0.0 0.0 0.00 1.52 1.52 66 1010.0
20260903221211 30 294 0.0 0.0 0.00 1.52 1.52 66 1010.0
20260903221149 30 295 0.0 0.0 0.00 1.52 1.52 65 1010.1
20260903221145 30 295 0.0 0.0 0.00 1.52 1.52 66 1010.0
20260903221140 30 294 0.0 0.0 0.00 1.52 1.52 66 1010.0
20260903221019 30 295 0.0 0.0 0.00 1.52 1.52 66 1010.0
20260903220910 30 295 0.0 0.0 0.00 1.52 1.52 65 1010.1
20260903220824 30 260 0.0 0.0 0.00 1.52 1.52 66 1010.0
20260903220819 30 237 0.0 0.0 0.00 1.52 1.52 66 1010.1
20260903220647 30 259 0.0 0.0 0.00 1.52 1.52 66 1010.0
20260903220642 30 260 0.0 0.0 0.00 1.52 1.52 66 1010.0
20260903220637 30 260 0.0 0.0 0.00 1.52 1.52 66 1010.0
20260903220519 30 260 0.0 0.0 0.00 1.52 1.52 66 1009.9
20260903220408 30 260 0.0 0.0 0.00 1.52 1.52 66 1010.0
20260903220308 30 259 0.0 0.0 0.00 1.52 1.52 66 1010.0
20260903220207 30 259 0.0 0.0 0.00 1.52 1.52 66 1010.0
20260903220107 30 259 0.0 0.0 0.00 1.52 1.52 66 1009.9
20260903220019 30 259 0.0 0.0 0.00 1.52 1.52 66 1009.8
20260903220007 30 259 0.0 0.0 0.00 1.52 1.52 66 1009.9
20260903215919 30 259 0.0 0.0 0.00 1.52 1.52 66 1009.9
20260903215904 30 259 0.0 0.0 0.00 1.52 1.52 66 1009.8
20260903215804 30 259 0.0 0.0 0.00 1.52 1.52 66 1009.8
20260903215703 30 259 0.0 0.0 0.00 1.52 1.52 66 1009.7
20260903215614 30 259 0.0 0.0 0.00 1.52 1.52 65 1009.7
20260903215609 30 259 0.0 0.0 0.00 1.52 1.52 65 1009.7
20260903215519 30 259 0.0 0.0 0.00 1.52 1.52 65 1009.6
20260903215417 30 259 0.0 0.0 0.00 1.52 1.52 65 1009.7
20260903215359 30 259 0.0 0.0 0.00 1.52 1.52 65 1009.7
20260903215259 30 259 0.0 0.0 0.00 1.52 1.52 65 1009.6
20260903215159 30 259 0.0 0.0 0.00 1.52 1.52 65 1009.6
20260903215057 30 259 0.0 0.0 0.00 1.52 1.52 65 1009.7
20260903215019 30 259 0.0 0.0 0.00 1.52 1.52 65 1009.6
20260903215017 30 259 0.0 0.0 0.00 1.52 1.52 64 1009.7
20260903215012 30 259 0.0 0.0 0.00 1.52 1.52 65 1009.7
20260903215004 30 259 0.0 0.0 0.00 1.52 1.52 64 1009.7
20260903214757 30 259 0.0 0.0 0.00 1.52 1.52 65 1009.8
20260903214654 30 259 0.0 0.0 0.00 1.52 1.52 65 1009.8
20260903214643 31 259 0.0 0.0 0.00 1.52 1.52 65 1009.7
20260903214554 31 259 0.0 0.0 0.00 1.52 1.52 65 1009.8
20260903214524 31 259 0.0 0.0 0.00 1.52 1.52 65 1009.7
20260903214519 31 259 0.0 0.0 0.00 1.52 1.52 65 1009.6
20260903214354 31 259 0.0 0.0 0.00 1.52 1.52 65 1009.7
20260903214253 31 259 0.0 0.0 0.00 1.52 1.52 64 1009.7
20260903214152 31 259 0.0 0.0 0.00 1.52 1.52 64 1009.6
20260903214141 31 257 0.0 0.0 0.00 1.52 1.52 64 1009.7
20260903214052 31 259 0.0 0.0 0.00 1.52 1.52 64 1009.7
20260903214022 31 259 0.0 0.0 0.00 1.52 1.52 64 1009.7
20260903214019 31 259 0.0 0.0 0.00 1.52 1.52 64 1009.6
20260903213850 31 257 0.0 0.0 0.00 1.52 1.52 64 1009.7
20260903213750 31 257 0.0 0.0 0.00 1.52 1.52 64 1009.7
20260903213650 31 257 0.0 0.0 0.00 1.52 1.52 64 1009.6
20260903213549 31 257 0.0 0.0 0.00 1.52 1.52 63 1009.6
20260903213520 31 257 0.0 0.0 0.00 1.52 1.52 63 1009.4
20260903213449 31 257 0.0 0.0 0.00 1.52 1.52 65 1009.5
20260903213412 31 257 0.0 0.0 0.00 1.52 1.52 65 1009.5
20260903213400 31 257 0.0 1.6 0.00 1.52 1.52 63 1009.4
20260903213355 31 257 0.0 0.0 0.00 1.52 1.52 64 1009.5
20260903213146 31 257 0.0 3.2 0.00 1.52 1.52 63 1009.4
20260903213045 31 257 0.0 3.2 0.00 1.52 1.52 63 1009.3
20260903213034 31 257 0.0 3.2 0.00 1.52 1.52 63 1009.2
20260903212945 31 257 0.0 3.2 0.00 1.52 1.52 62 1009.3
20260903212912 31 257 0.0 3.2 0.00 1.52 1.52 62 1009.3
20260903212841 31 257 1.6 4.8 0.00 1.52 1.52 62 1009.3
20260903212742 31 257 1.6 9.7 0.00 1.52 1.52 62 1009.4
20260903212656 31 257 1.6 9.7 0.00 1.52 1.52 62 1009.4
20260903212650 31 257 1.6 9.7 0.00 1.52 1.52 62 1009.4
20260903212519 31 257 0.0 9.7 0.00 1.52 1.52 63 1009.4
20260903212511 31 257 1.6 9.7 0.00 1.52 1.52 62 1009.5
20260903212505 31 257 1.6 9.7 0.00 1.52 1.52 63 1009.5
20260903212457 31 257 1.6 9.7 0.00 1.52 1.52 63 1009.5
20260903212451 31 257 1.6 9.7 0.00 1.52 1.52 63 1009.5
20260903212228 31 257 1.6 9.7 0.00 1.52 1.52 62 1009.4
20260903212019 31 257 1.6 9.7 0.00 1.52 1.52 62 1009.4
20260903212007 31 259 1.6 4.8 0.00 1.52 1.52 62 1009.6
20260903212001 31 257 1.6 9.7 0.00 1.52 1.52 62 1009.5
20260903211953 31 257 1.6 9.7 0.00 1.52 1.52 61 1009.5
20260903211636 31 259 1.6 4.8 0.00 1.52 1.52 62 1009.6
20260903211536 31 259 1.6 9.7 0.00 1.52 1.52 62 1009.6
20260903211520 31 259 3.2 9.7 0.00 1.52 1.52 62 1009.5
20260903211435 31 266 1.6 9.7 0.00 1.52 1.52 62 1009.6
20260903211407 31 266 1.6 9.7 0.00 1.52 1.52 61 1009.6
20260903211335 31 266 1.6 9.7 0.00 1.52 1.52 61 1009.6
20260903211244 31 275 1.6 9.7 0.00 1.52 1.52 62 1009.6
20260903211235 31 275 1.6 9.7 0.00 1.52 1.52 62 1009.6
20260903211033 31 275 1.6 9.7 0.00 1.52 1.52 61 1009.6
20260903211019 31 275 1.6 9.7 0.00 1.52 1.52 61 1009.6
20260903211015 31 275 1.6 9.7 0.00 1.52 1.52 61 1009.7
20260903210846 31 275 3.2 9.7 0.00 1.52 1.52 60 1009.7
20260903210840 31 275 1.6 9.7 0.00 1.52 1.52 62 1009.7
20260903210631 31 278 1.6 9.7 0.00 1.52 1.52 62 1009.7
20260903210529 31 255 3.2 8.0 0.00 1.52 1.52 62 1009.7
20260903210519 31 254 1.6 9.7 0.00 1.52 1.52 62 1009.6
20260903210407 31 254 3.2 9.7 0.00 1.52 1.52 62 1009.7
20260903210329 31 254 3.2 9.7 0.00 1.52 1.52 62 1009.7
20260903210229 31 254 3.2 9.7 0.00 1.52 1.52 61 1009.7
20260903210217 31 254 4.8 11.3 0.00 1.52 1.52 61 1009.7
20260903210213 31 254 4.8 11.3 0.00 1.52 1.52 61 1009.8
20260903210209 31 254 4.8 11.3 0.00 1.52 1.52 60 1009.8
20260903210202 31 254 3.2 9.7 0.00 1.52 1.52 60 1009.7
20260903210044 31 254 4.8 11.3 0.00 1.52 1.52 61 1009.8
20260903210019 31 254 1.6 9.7 0.00 1.52 1.52 61 1009.7
20260903205729 31 242 4.8 11.3 0.00 1.52 1.52 60 1009.8
20260903205627 31 236 4.8 11.3 0.00 1.52 1.52 59 1009.8
20260903205534 31 282 4.8 9.7 0.00 1.52 1.52 59 1009.6
20260903205527 31 261 4.8 11.3 0.00 1.52 1.52 59 1009.8
20260903205426 31 315 4.8 11.3 0.00 1.52 1.52 60 1009.8
20260903205405 31 268 4.8 11.3 0.00 1.52 1.52 60 1009.8
20260903205326 31 268 4.8 11.3 0.00 1.52 1.52 60 1009.8
20260903205226 31 281 3.2 11.3 0.00 1.52 1.52 60 1009.8
20260903205125 31 284 3.2 11.3 0.00 1.52 1.52 60 1009.8
20260903205024 31 278 3.2 9.7 0.00 1.52 1.52 60 1009.9
20260903205019 31 278 4.8 9.7 0.00 1.52 1.52 60 1009.6
20260903204924 31 279 3.2 9.7 0.00 1.52 1.52 61 1009.8
20260903204905 31 280 3.2 9.7 0.00 1.52 1.52 61 1009.8
20260903204837 31 308 3.2 8.0 0.00 1.52 1.52 60 1009.9
20260903204832 31 163 3.2 8.0 0.00 1.52 1.52 60 1009.8
20260903204621 31 311 3.2 8.0 0.00 1.52 1.52 60 1009.9
20260903204521 31 257 1.6 6.4 0.00 1.52 1.52 61 1009.8
20260903204519 31 259 4.8 6.4 0.00 1.52 1.52 61 1009.7
20260903204419 31 229 1.6 6.4 0.00 1.52 1.52 60 1009.9
20260903204405 31 229 1.6 6.4 0.00 1.52 1.52 60 1009.8
20260903204318 31 229 3.2 6.4 0.00 1.52 1.52 60 1009.8
20260903204218 31 229 3.2 6.4 0.00 1.52 1.52 60 1009.9
20260903204140 31 231 3.2 9.7 0.00 1.52 1.52 59 1009.9
20260903204034 31 252 1.6 9.7 0.00 1.52 1.52 60 1009.7
20260903204026 31 252 3.2 9.7 0.00 1.52 1.52 60 1009.9
20260903203911 31 251 3.2 9.7 0.00 1.52 1.52 60 1009.9
20260903203903 31 256 3.2 9.7 0.00 1.52 1.52 61 1009.9
20260903203752 31 259 3.2 9.7 0.00 1.52 1.52 61 1009.9
20260903203746 31 258 3.2 9.7 0.00 1.52 1.52 61 1009.8
20260903203741 31 254 3.2 9.7 0.00 1.52 1.52 60 1009.8
20260903203519 31 259 1.6 9.7 0.00 1.52 1.52 60 1009.6
20260903203404 31 233 3.2 9.7 0.00 1.52 1.52 61 1009.8
20260903203313 31 260 3.2 9.7 0.00 1.52 1.52 60 1009.9
20260903203212 31 260 3.2 9.7 0.00 1.52 1.52 60 1009.9
20260903203112 31 263 3.2 9.7 0.00 1.52 1.52 61 1009.9
20260903203019 31 267 3.2 6.4 0.00 1.52 1.52 60 1009.7
20260903203012 31 267 3.2 6.4 0.00 1.52 1.52 60 1009.9
20260903202904 31 267 3.2 6.4 0.00 1.52 1.52 60 1009.9
20260903202810 31 268 3.2 9.7 0.00 1.52 1.52 61 1009.9
20260903202710 31 269 3.2 9.7 0.00 1.52 1.52 62 1009.9
20260903202609 31 213 3.2 9.7 0.00 1.52 1.52 63 1009.8
20260903202534 31 275 3.2 9.7 0.00 1.52 1.52 62 1009.7
20260903202525 31 280 1.6 9.7 0.00 1.52 1.52 64 1009.8
20260903202520 31 282 3.2 9.7 0.00 1.52 1.52 62 1009.8
20260903202404 31 280 1.6 9.7 0.00 1.52 1.52 64 1009.8
20260903202321 31 288 1.6 9.7 0.00 1.52 1.52 64 1009.9
20260903202316 31 280 1.6 9.7 0.00 1.52 1.52 63 1009.8
20260903202120 31 291 1.6 9.7 0.00 1.52 1.52 63 1009.9
20260903202115 31 291 1.6 9.7 0.00 1.52 1.52 63 1009.9
20260903202019 31 291 1.6 9.7 0.00 1.52 1.52 63 1009.8
20260903201906 31 244 1.6 9.7 0.00 1.52 1.52 63 1009.9
20260903201803 31 280 1.6 6.4 0.00 1.52 1.52 63 1009.9
20260903201717 31 280 1.6 6.4 0.00 1.52 1.52 61 1010.0
20260903201712 31 280 1.6 6.4 0.00 1.52 1.52 62 1010.0
20260903201549 31 282 3.2 6.4 0.00 1.52 1.52 61 1009.8
20260903201502 31 282 1.6 6.4 0.00 1.52 1.52 61 1009.9
20260903201407 31 282 1.6 6.4 0.00 1.52 1.52 61 1009.9
20260903201402 31 282 1.6 6.4 0.00 1.52 1.52 61 1009.9
20260903201300 31 282 1.6 12.9 0.00 1.52 1.52 61 1009.9
20260903201200 31 246 1.6 12.9 0.00 1.52 1.52 62 1010.0
20260903201147 31 243 1.6 12.9 0.00 1.52 1.52 61 1010.0
20260903201143 31 243 1.6 12.9 0.00 1.52 1.52 62 1010.0
20260903201138 31 243 1.6 12.9 0.00 1.52 1.52 61 1010.0
20260903201132 31 243 1.6 12.9 0.00 1.52 1.52 62 1010.1
20260903201020 31 243 1.6 12.9 0.00 1.52 1.52 62 1009.8
20260903200908 31 243 1.6 12.9 0.00 1.52 1.52 61 1010.0
20260903200659 31 244 1.6 12.9 0.00 1.52 1.52 61 1010.0
20260903200557 31 243 1.6 12.9 0.00 1.52 1.52 62 1010.1
20260903200519 31 243 0.0 12.9 0.00 1.52 1.52 61 1009.8
20260903200457 31 243 1.6 12.9 0.00 1.52 1.52 61 1010.0
20260903200403 31 242 1.6 12.9 0.00 1.52 1.52 61 1010.0
20260903200356 31 242 1.6 12.9 0.00 1.52 1.52 61 1010.0
20260903200256 31 246 1.6 4.8 0.00 1.52 1.52 62 1010.0
20260903200156 31 245 1.6 4.8 0.00 1.52 1.52 62 1010.0
20260903200107 31 245 1.6 6.4 0.00 1.52 1.52 63 1010.0
20260903200034 31 245 3.2 6.4 0.00 1.52 1.52 63 1009.8
20260903195913 31 246 3.2 6.4 0.00 1.52 1.52 62 1009.9
20260903195902 31 246 1.6 6.4 0.00 1.52 1.52 62 1009.9
20260903195651 31 247 3.2 12.9 0.00 1.52 1.52 62 1010.0
20260903195616 31 221 3.2 12.9 0.00 1.52 1.52 61 1009.9
20260903195551 31 247 3.2 12.9 0.00 1.52 1.52 62 1010.0
20260903195519 31 221 0.0 12.9 0.00 1.52 1.52 62 1009.9
20260903195507 31 221 3.2 12.9 0.00 1.52 1.52 62 1010.0
20260903195351 31 221 3.2 12.9 0.00 1.52 1.52 61 1009.9
20260903195251 31 221 4.8 12.9 0.00 1.52 1.52 60 1010.0
20260903195150 31 212 3.2 12.9 0.00 1.52 1.52 60 1010.0
20260903195050 31 265 4.8 12.9 0.00 1.52 1.52 60 1010.0
20260903195019 31 182 6.4 17.7 0.00 1.52 1.52 61 1009.9
20260903195003 31 233 4.8 17.7 0.00 1.52 1.52 60 1010.0
20260903194955 31 232 4.8 17.7 0.00 1.52 1.52 60 1010.1
20260903194802 31 248 3.2 17.7 0.00 1.52 1.52 59 1010.1
20260903194756 31 233 4.8 17.7 0.00 1.52 1.52 60 1010.1
20260903194549 31 218 3.2 17.7 0.00 1.52 1.52 60 1010.0
20260903194547 31 220 3.2 17.7 0.00 1.52 1.52 60 1010.1
20260903194446 31 219 3.2 17.7 0.00 1.52 1.52 60 1010.2
20260903194357 31 253 3.2 17.7 0.00 1.52 1.52 60 1010.2
20260903194346 31 253 3.2 17.7 0.00 1.52 1.52 59 1010.2
20260903194246 31 258 1.6 17.7 0.00 1.52 1.52 60 1010.2
20260903194144 31 298 1.6 17.7 0.00 1.52 1.52 60 1010.2
20260903194058 31 251 0.0 12.9 0.00 1.52 1.52 60 1010.2
20260903194053 31 251 1.6 17.7 0.00 1.52 1.52 59 1010.2
20260903194019 32 271 6.4 12.9 0.00 1.52 1.52 60 1010.1
20260903193857 32 263 0.0 9.7 0.00 1.52 1.52 60 1010.3
20260903193843 31 285 0.0 6.4 0.00 1.52 1.52 59 1010.3
20260903193756 32 302 0.0 3.2 0.00 1.52 1.52 59 1010.3
20260903193751 32 302 0.0 3.2 0.00 1.52 1.52 59 1010.3
20260903193549 32 223 0.0 0.0 0.00 1.52 1.52 58 1010.2
20260903193541 32 307 0.0 0.0 0.00 1.52 1.52 59 1010.3
20260903193438 32 223 0.0 0.0 0.00 1.52 1.52 58 1010.3
20260903193357 32 234 0.0 0.0 0.00 1.52 1.52 60 1010.3
20260903193338 32 223 0.0 0.0 0.00 1.52 1.52 61 1010.3
20260903193238 32 229 0.0 0.0 0.00 1.52 1.52 60 1010.3
20260903193137 32 269 0.0 0.0 0.00 1.52 1.52 60 1010.3
20260903193037 32 283 0.0 0.0 0.00 1.52 1.52 60 1010.3
20260903193019 32 284 0.0 0.0 0.00 1.52 1.52 59 1010.2
20260903192936 32 284 0.0 0.0 0.00 1.52 1.52 59 1010.3
20260903192856 32 286 0.0 0.0 0.00 1.52 1.52 59 1010.4
20260903192836 32 291 0.0 0.0 0.00 1.52 1.52 59 1010.4
20260903192735 32 250 0.0 0.0 0.00 1.52 1.52 59 1010.3
20260903192635 32 172 0.0 0.0 0.00 1.52 1.52 59 1010.4
20260903192618 32 220 0.0 0.0 0.00 1.52 1.52 59 1010.5
20260903192535 32 168 0.0 0.0 0.00 1.52 1.52 58 1010.4
20260903192519 32 246 0.0 0.0 0.00 1.52 1.52 60 1010.4
20260903192503 32 244 0.0 0.0 0.00 1.52 1.52 60 1010.5
20260903192334 32 220 0.0 0.0 0.00 1.52 1.52 59 1010.5
20260903192234 32 184 0.0 0.0 0.00 1.52 1.52 60 1010.5
20260903192133 32 266 0.0 0.0 0.00 1.52 1.52 60 1010.5
20260903192033 32 272 0.0 0.0 0.00 1.52 1.52 60 1010.5
20260903192019 32 201 0.0 0.0 0.00 1.52 1.52 60 1010.3
20260903191932 32 200 0.0 0.0 0.00 1.52 1.52 58 1010.4
20260903191854 32 234 0.0 0.0 0.00 1.52 1.52 59 1010.5
20260903191832 32 245 0.0 0.0 0.00 1.52 1.52 59 1010.5
20260903191732 32 270 0.0 0.0 0.00 1.52 1.52 58 1010.5
20260903191632 32 281 0.0 0.0 0.00 1.52 1.52 60 1010.6
20260903191545 32 289 0.0 0.0 0.00 1.52 1.52 58 1010.6
20260903191540 32 297 0.0 0.0 0.00 1.52 1.52 59 1010.6
20260903191519 32 319 0.0 0.0 0.00 1.52 1.52 59 1010.5
20260903191354 32 243 0.0 0.0 0.00 1.52 1.52 60 1010.6
20260903191330 32 286 0.0 0.0 0.00 1.52 1.52 60 1010.6
20260903191229 32 292 0.0 0.0 0.00 1.52 1.52 59 1010.7
20260903191129 32 244 0.0 0.0 0.00 1.52 1.52 59 1010.7
20260903191029 32 256 0.0 0.0 0.00 1.52 1.52 58 1010.7
20260903191019 32 257 0.0 0.0 0.00 1.52 1.52 58 1010.6
20260903190927 32 234 0.0 0.0 0.00 1.52 1.52 61 1010.7
20260903190853 32 228 0.0 0.0 0.00 1.52 1.52 60 1010.8
20260903190827 32 229 0.0 0.0 0.00 1.52 1.52 60 1010.8
20260903190727 32 248 0.0 0.0 0.00 1.52 1.52 60 1010.8
20260903190626 32 244 0.0 0.0 0.00 1.52 1.52 58 1010.8
20260903190525 32 192 0.0 0.0 0.00 1.52 1.52 60 1010.8
20260903190519 32 192 0.0 0.0 0.00 1.52 1.52 60 1010.7
20260903190426 32 192 0.0 0.0 0.00 1.52 1.52 61 1010.8
20260903190351 32 240 0.0 0.0 0.00 1.52 1.52 61 1010.8
20260903190325 32 163 0.0 0.0 0.00 1.52 1.52 60 1010.8
20260903190225 32 162 0.0 0.0 0.00 1.52 1.52 61 1010.8
20260903190125 31 190 0.0 0.0 0.00 1.52 1.52 59 1010.9
20260903190024 31 176 0.0 0.0 0.00 1.52 1.52 60 1010.8
20260903190019 32 196 0.0 0.0 0.00 1.52 1.52 60 1010.7
20260903185942 31 298 0.0 0.0 0.00 1.52 1.52 60 1010.8
20260903185937 31 196 0.0 0.0 0.00 1.52 1.52 60 1010.8
20260903185929 31 281 0.0 0.0 0.00 1.52 1.52 60 1010.8
20260903185720 31 259 0.0 0.0 0.00 1.52 1.52 61 1010.8
20260903185620 31 265 0.0 0.0 0.00 1.52 1.52 61 1010.8
20260903185609 31 170 0.0 0.0 0.00 1.52 1.52 61 1010.8
20260903185520 31 265 0.0 0.0 0.00 1.52 1.52 60 1010.8
20260903185458 31 194 0.0 0.0 0.00 1.52 1.52 61 1010.7
20260903185319 31 170 0.0 0.0 0.00 1.52 1.52 60 1010.8
20260903185217 31 221 0.0 0.0 0.00 1.52 1.52 61 1010.7
20260903185131 31 202 0.0 0.0 0.00 1.52 1.52 60 1010.7
20260903185126 31 186 0.0 0.0 0.00 1.52 1.52 61 1010.7
20260903185019 31 211 0.0 0.0 0.00 1.52 1.52 60 1010.7
20260903184916 31 269 0.0 0.0 0.00 1.52 1.52 59 1010.8
20260903184850 31 275 0.0 0.0 0.00 1.52 1.52 59 1010.7
20260903184816 31 274 0.0 0.0 0.00 1.52 1.52 60 1010.7
20260903184715 31 279 0.0 0.0 0.00 1.52 1.52 60 1010.9
20260903184614 31 311 0.0 0.0 0.00 1.52 1.52 59 1010.9
20260903184519 32 265 0.0 0.0 0.00 1.52 1.52 59 1010.9
20260903184514 32 319 0.0 0.0 0.00 1.52 1.52 59 1010.9
20260903184433 32 218 0.0 0.0 0.00 1.52 1.52 58 1011.0
20260903184427 32 327 0.0 0.0 0.00 1.52 1.52 59 1011.0
20260903184421 32 268 0.0 0.0 0.00 1.52 1.52 59 1011.0
20260903184213 32 258 0.0 0.0 0.00 1.52 1.52 61 1011.0
20260903184112 32 192 0.0 0.0 0.00 1.52 1.52 61 1011.0
20260903184026 32 134 0.0 0.0 0.00 1.52 1.52 60 1011.1
20260903184021 32 246 0.0 0.0 0.00 1.52 1.52 60 1011.1
20260903184019 32 250 0.0 0.0 0.00 1.52 1.52 60 1011.0
20260903183849 32 130 0.0 0.0 0.00 1.52 1.52 61 1011.1
20260903183810 32 261 0.0 0.0 0.00 1.52 1.52 61 1011.1
20260903183711 32 321 0.0 0.0 0.00 1.52 1.52 61 1011.0
20260903183613 32 286 0.0 0.0 0.00 1.52 1.52 61 1011.1
20260903183607 32 268 0.0 0.0 0.00 1.52 1.52 62 1011.1
20260903183600 32 292 0.0 0.0 0.00 1.52 1.52 60 1011.1
20260903183534 32 292 0.0 0.0 0.00 1.52 1.52 60 1011.0
20260903183447 32 205 0.0 0.0 0.00 1.52 1.52 62 1011.1
20260903183440 32 329 0.0 0.0 0.00 1.52 1.52 63 1011.1
20260903183329 32 267 0.0 0.0 0.00 1.52 1.52 63 1011.1
20260903183019 32 273 0.0 0.0 0.00 1.52 1.52 62 1010.9
20260903183010 31 272 0.0 0.0 0.00 1.52 1.52 62 1011.0
20260903182955 31 284 0.0 0.0 0.00 1.52 1.52 63 1011.0
20260903182809 31 216 0.0 0.0 0.00 1.52 1.52 63 1011.0
20260903182706 31 268 0.0 0.0 0.00 1.52 1.52 63 1010.9
20260903182607 31 265 0.0 0.0 0.00 1.52 1.52 62 1011.0
20260903182519 31 268 0.0 0.0 0.00 1.52 1.52 62 1010.8
20260903182507 31 268 0.0 0.0 0.00 1.52 1.52 62 1011.0
20260903182406 31 254 0.0 0.0 0.00 1.52 1.52 62 1011.0
20260903182346 31 254 0.0 0.0 0.00 1.52 1.52 62 1010.9
20260903182307 31 207 0.0 0.0 0.00 1.52 1.52 62 1010.9
20260903182205 31 286 0.0 0.0 0.00 1.52 1.52 63 1010.9
20260903182119 31 266 0.0 0.0 0.00 1.52 1.52 62 1010.9
20260903182115 31 286 0.0 0.0 0.00 1.52 1.52 62 1010.9
20260903182019 31 273 0.0 0.0 0.00 1.52 1.52 62 1010.8
20260903181904 31 232 0.0 0.0 0.00 1.52 1.52 62 1011.0
20260903181844 31 243 0.0 0.0 0.00 1.52 1.52 62 1011.0
20260903181804 31 241 0.0 0.0 0.00 1.52 1.52 63 1011.0
20260903181703 31 246 0.0 0.0 0.00 1.52 1.52 63 1011.0
20260903181608 31 196 0.0 0.0 0.00 1.52 1.52 62 1011.1
20260903181604 31 246 0.0 0.0 0.00 1.52 1.52 63 1011.0
20260903181556 31 296 0.0 0.0 0.00 1.52 1.52 65 1011.1
20260903181551 31 246 0.0 0.0 0.00 1.52 1.52 63 1011.1
20260903181519 31 246 0.0 0.0 0.00 1.52 1.52 63 1011.0
20260903181434 31 233 0.0 0.0 0.00 1.52 1.52 62 1011.1
20260903181214 31 289 0.0 0.0 0.00 1.52 1.52 63 1011.1
20260903181210 31 232 0.0 0.0 0.00 1.52 1.52 64 1011.1
20260903181019 31 309 0.0 0.0 0.00 1.52 1.52 64 1011.0
20260903181002 31 309 0.0 0.0 0.00 1.52 1.52 64 1011.1
20260903180949 31 289 0.0 0.0 0.00 1.52 1.52 63 1011.1
20260903180800 31 306 0.0 0.0 0.00 1.52 1.52 64 1011.2
20260903180718 31 277 0.0 0.0 0.00 1.52 1.52 65 1011.2
20260903180559 31 265 0.0 0.0 0.00 1.52 1.52 64 1011.2
20260903180519 31 254 0.0 0.0 0.00 1.52 1.52 64 1011.0
20260903180459 31 283 0.0 0.0 0.00 1.52 1.52 64 1011.1
20260903180448 31 233 0.0 0.0 0.00 1.52 1.52 65 1011.2
20260903180259 31 316 0.0 0.0 0.00 1.52 1.52 65 1011.2
20260903180159 31 248 0.0 0.0 0.00 1.52 1.52 64 1011.2
20260903180057 31 259 0.0 19.3 0.00 1.52 1.52 64 1011.2
20260903180019 31 238 0.0 19.3 0.00 1.52 1.52 63 1011.2
20260903175957 31 230 1.6 19.3 0.00 1.52 1.52 63 1011.3
20260903175856 31 296 1.6 19.3 0.00 1.52 1.52 63 1011.2
20260903175839 31 302 1.6 19.3 0.00 1.52 1.52 63 1011.2
20260903175808 31 306 1.6 19.3 0.00 1.52 1.52 63 1011.2
20260903175804 31 334 1.6 19.3 0.00 1.52 1.52 63 1011.2
20260903175553 31 311 3.2 19.3 0.00 1.52 1.52 63 1011.3
20260903175534 31 323 0.0 19.3 0.00 1.52 1.52 63 1011.2
20260903175453 31 350 3.2 19.3 0.00 1.52 1.52 63 1011.3
20260903175352 31 316 4.8 19.3 0.00 1.52 1.52 62 1011.3
20260903175339 31 327 4.8 19.3 0.00 1.52 1.52 62 1011.3
20260903175252 31 205 4.8 19.3 0.00 1.52 1.52 62 1011.3
20260903175152 31 277 4.8 19.3 0.00 1.52 1.52 64 1011.3
20260903175104 31 259 4.8 17.7 0.00 1.52 1.52 63 1011.3
20260903175100 31 259 4.8 17.7 0.00 1.52 1.52 64 1011.3
20260903175019 31 259 1.6 17.7 0.00 1.52 1.52 63 1011.2
20260903174850 31 264 4.8 16.1 0.00 1.52 1.52 64 1011.2
20260903174837 31 269 4.8 16.1 0.00 1.52 1.52 64 1011.2
20260903174803 31 269 4.8 16.1 0.00 1.52 1.52 62 1011.2
20260903174759 31 214 4.8 16.1 0.00 1.52 1.52 63 1011.2
20260903174609 31 300 4.8 16.1 0.00 1.52 1.52 62 1011.2
20260903174520 31 323 9.7 12.9 0.00 1.52 1.52 63 1011.1
20260903174456 31 296 4.8 14.5 0.00 1.52 1.52 63 1011.2
20260903174338 31 248 4.8 14.5 0.00 1.52 1.52 64 1011.2
20260903174247 31 248 4.8 14.5 0.00 1.52 1.52 64 1011.2
20260903174220 31 248 4.8 14.5 0.00 1.52 1.52 64 1011.3
20260903174108 31 254 4.8 14.5 0.00 1.52 1.52 65 1011.4
20260903174103 31 246 4.8 14.5 0.00 1.52 1.52 66 1011.3
20260903174019 31 267 9.7 12.9 0.00 1.52 1.52 64 1011.3
20260903173836 31 261 4.8 14.5 0.00 1.52 1.52 65 1011.4
20260903173743 31 278 4.8 14.5 0.00 1.52 1.52 63 1011.4
20260903173642 31 273 4.8 12.9 0.00 1.52 1.52 62 1011.4
20260903173542 31 307 4.8 12.9 0.00 1.55 1.52 62 1011.4
20260903173534 31 265 4.8 12.9 0.00 1.55 1.52 62 1011.3
20260903173457 31 242 3.2 12.9 0.00 1.55 1.52 63 1011.4
20260903173453 31 292 3.2 12.9 0.00 1.55 1.52 64 1011.4
20260903173337 31 242 3.2 12.9 0.00 1.55 1.52 63 1011.4
20260903173242 31 246 4.8 12.9 0.00 1.55 1.52 64 1011.4
20260903173141 31 296 4.8 12.9 0.00 1.55 1.52 62 1011.4
20260903173132 31 232 4.8 16.1 0.00 1.55 1.52 65 1011.5
20260903173040 31 207 4.8 12.9 0.00 1.55 1.52 65 1011.5
20260903173029 31 233 4.8 16.1 0.00 1.55 1.52 64 1011.5
20260903173020 31 238 3.2 16.1 0.00 1.55 1.52 65 1011.4
20260903172802 31 223 4.8 16.1 0.00 1.55 1.52 65 1011.5
20260903172757 31 200 4.8 16.1 0.00 1.55 1.52 65 1011.5
20260903172519 31 221 3.2 16.1 0.00 1.55 1.52 65 1011.4
20260903172453 31 238 4.8 16.1 0.00 1.55 1.52 65 1011.5
20260903172449 31 324 4.8 16.1 0.00 1.55 1.52 64 1011.5
20260903172333 31 238 4.8 16.1 0.00 1.55 1.52 65 1011.5
20260903172237 31 270 4.8 16.1 0.00 1.55 1.52 65 1011.5
20260903172217 31 248 4.8 14.5 0.00 1.55 1.52 65 1011.5
20260903172212 31 263 4.8 16.1 0.00 1.55 1.52 64 1011.5
20260903172058 31 321 4.8 16.1 0.00 1.55 1.52 65 1011.6
20260903172019 31 248 3.2 14.5 0.00 1.55 1.52 64 1011.4
20260903171836 31 287 4.8 16.1 0.00 1.55 1.52 66 1011.6
20260903171734 31 240 4.8 16.1 0.00 1.55 1.52 66 1011.6
20260903171634 30 240 4.8 16.1 0.00 1.55 1.52 65 1011.7
20260903171533 30 258 4.8 16.1 0.00 1.55 1.52 64 1011.7
20260903171519 30 258 4.8 14.5 0.00 1.55 1.52 65 1011.6
20260903171433 30 242 4.8 16.1 0.00 1.55 1.52 65 1011.7
20260903171333 30 242 4.8 16.1 0.00 1.55 1.52 64 1011.7
20260903171231 30 237 4.8 16.1 0.00 1.55 1.52 64 1011.7
20260903171131 30 250 4.8 16.1 0.00 1.55 1.52 64 1011.7
20260903171030 30 294 3.2 16.1 0.00 1.55 1.52 65 1011.7
20260903171019 30 233 1.6 12.9 0.00 1.55 1.52 65 1011.6
20260903170930 30 233 3.2 16.1 0.00 1.55 1.52 65 1011.7
20260903170834 30 269 3.2 16.1 0.00 1.55 1.52 66 1011.7
20260903170829 30 264 3.2 16.1 0.00 1.55 1.52 65 1011.7
20260903170728 30 250 3.2 16.1 0.00 1.55 1.52 68 1011.7
20260903170628 30 254 3.2 16.1 0.00 1.55 1.52 67 1011.8
20260903170528 30 269 3.2 16.1 0.00 1.55 1.52 66 1011.8
20260903170519 30 231 4.8 12.9 0.00 1.55 1.52 68 1011.6
20260903170428 30 241 3.2 16.1 0.00 1.55 1.52 68 1011.7
20260903170327 30 233 4.8 16.1 0.00 1.55 1.52 67 1011.7
20260903170226 30 233 4.8 16.1 0.00 1.55 1.52 64 1011.7
20260903170125 30 213 4.8 16.1 0.00 1.55 1.52 66 1011.7
20260903170025 30 232 4.8 16.1 0.00 1.55 1.52 65 1011.6
20260903170020 30 232 3.2 12.9 0.00 1.55 1.52 65 1011.5
20260903165925 30 244 4.8 16.1 0.00 1.55 1.52 65 1011.6
20260903165826 30 246 4.8 12.9 0.00 1.55 1.52 65 1011.6
20260903165726 30 246 4.8 12.9 0.00 1.55 1.52 65 1011.6
20260903165625 30 246 4.8 12.9 0.00 1.55 1.52 64 1011.6
20260903165525 30 257 4.8 12.9 0.00 1.55 1.52 64 1011.7
20260903165519 30 261 3.2 12.9 0.00 1.55 1.52 64 1011.7
20260903165424 30 240 4.8 12.9 0.00 1.55 1.52 66 1011.8
20260903165352 30 222 4.8 12.9 0.00 1.55 1.52 66 1011.7
20260903165347 30 325 4.8 12.9 0.00 1.55 1.52 66 1011.7
20260903165233 30 284 3.2 12.9 0.00 1.55 1.52 67 1011.7
20260903165034 30 276 4.8 9.7 0.00 1.55 1.52 69 1011.7
20260903165023 30 252 1.6 12.9 0.00 1.55 1.52 69 1011.8
20260903164923 30 262 1.6 9.7 0.00 1.55 1.52 68 1011.8
20260903164822 30 263 1.6 9.7 0.00 1.55 1.52 70 1011.8
20260903164722 30 319 1.6 9.7 0.00 1.55 1.52 70 1011.9
20260903164643 30 227 0.0 8.0 0.00 1.55 1.52 72 1011.9
20260903164534 30 226 4.8 8.0 0.00 1.55 1.52 70 1011.8
20260903164529 30 227 0.0 8.0 0.00 1.55 1.52 70 1011.9
20260903164341 30 355 0.0 0.0 0.00 1.55 1.52 70 1011.9
20260903164228 30 221 0.0 0.0 0.00 1.55 1.52 70 1012.0
20260903164019 30 188 0.0 0.0 0.00 1.55 1.52 71 1012.0
20260903163918 30 177 0.0 0.0 0.00 1.55 1.52 72 1012.1
20260903163825 30 246 0.0 0.0 0.00 1.55 1.52 73 1012.1
20260903163817 29 247 0.0 0.0 0.00 1.55 1.52 73 1012.1
20260903163717 29 216 0.0 0.0 0.00 1.55 1.52 73 1012.0
20260903163617 29 202 0.0 0.0 0.00 1.55 1.52 73 1012.1
20260903163535 29 220 0.0 0.0 0.00 1.55 1.52 74 1011.9
20260903163517 29 220 0.0 0.0 0.00 1.55 1.52 74 1012.0
20260903163413 29 221 0.0 0.0 0.00 1.55 1.52 73 1012.0
20260903163313 29 221 0.0 0.0 0.00 1.55 1.52 72 1011.9
20260903163212 29 186 0.0 0.0 0.00 1.55 1.52 73 1012.0
20260903163112 28 186 0.0 0.0 0.00 1.55 1.52 73 1012.0
20260903163019 28 190 0.0 0.0 0.00 1.55 1.52 74 1011.8
20260903163012 28 190 0.0 0.0 0.00 1.55 1.52 74 1012.0
20260903162911 28 290 0.0 0.0 0.00 1.55 1.52 73 1011.9
20260903162810 28 182 0.0 0.0 0.00 1.55 1.52 73 1011.9
20260903162709 28 182 0.0 0.0 0.00 1.55 1.52 73 1011.9
20260903162607 28 269 0.0 0.0 0.00 1.55 1.52 73 1011.9
20260903162549 28 236 0.0 0.0 0.00 1.55 1.52 74 1011.7
20260903162506 28 205 0.0 0.0 0.00 1.55 1.52 74 1011.9
20260903162406 28 214 0.0 0.0 0.00 1.55 1.52 73 1011.8
20260903162324 28 262 0.0 0.0 0.00 1.55 1.52 73 1011.7
20260903162307 28 250 0.0 0.0 0.00 1.55 1.52 73 1011.7
20260903162206 28 198 0.0 0.0 0.00 1.55 1.52 74 1011.9
20260903162106 28 258 0.0 0.0 0.00 1.55 1.52 74 1011.7
20260903162034 28 297 0.0 0.0 0.00 1.55 1.52 73 1011.6
20260903162006 28 297 0.0 0.0 0.00 1.55 1.52 73 1011.7
20260903161906 28 215 0.0 0.0 0.00 1.55 1.52 74 1011.9
20260903161822 28 200 0.0 0.0 0.00 1.55 1.52 74 1011.9
20260903161805 28 199 0.0 0.0 0.00 1.55 1.52 74 1011.9
20260903161705 28 199 0.0 0.0 0.00 1.55 1.52 75 1011.7
20260903161605 28 256 0.0 0.0 0.00 1.55 1.52 75 1011.7
20260903161519 28 234 0.0 0.0 0.00 1.55 1.52 76 1011.6
20260903161504 28 240 0.0 0.0 0.00 1.55 1.52 76 1011.7
20260903161403 28 215 0.0 0.0 0.00 1.55 1.52 77 1011.7
20260903161323 28 215 0.0 0.0 0.00 1.55 1.52 77 1011.7
20260903161302 28 217 0.0 0.0 0.00 1.55 1.52 77 1011.7
20260903161202 28 215 0.0 0.0 0.00 1.55 1.52 77 1011.7
20260903161101 28 205 0.0 0.0 0.00 1.55 1.52 77 1011.8
20260903161020 28 205 0.0 0.0 0.00 1.55 1.52 77 1010.8
20260903161000 28 205 0.0 0.0 0.00 1.55 1.52 77 1010.9
20260903160900 28 205 0.0 0.0 0.00 1.55 1.52 76 1010.9
20260903160822 28 205 0.0 0.0 0.00 1.55 1.52 78 1010.9
20260903160812 28 228 0.0 0.0 0.00 1.55 1.52 78 1012.1
20260903160807 28 202 0.0 0.0 0.00 1.55 1.52 78 1011.1
20260903160557 28 229 0.0 0.0 0.00 1.55 1.52 77 1012.1
20260903160524 28 229 0.0 0.0 0.00 1.55 1.52 77 1012.1
20260903160520 28 229 0.0 0.0 0.00 1.55 1.52 77 1012.1
20260903160411 27 269 0.0 0.0 0.00 1.55 1.52 76 1012.1
20260903160402 27 243 0.0 0.0 0.00 1.55 1.52 77 1012.1
20260903160155 27 261 0.0 0.0 0.00 1.55 1.52 77 1010.1
20260903160055 27 317 0.0 0.0 0.00 1.55 1.52 77 1010.1
20260903160036 27 273 0.0 0.0 0.00 1.55 1.52 78 1011.8
20260903160019 27 213 0.0 0.0 0.00 1.55 1.52 77 1011.8
20260903155955 27 287 0.0 0.0 0.00 1.55 1.52 77 1011.8
20260903155927 27 257 0.0 0.0 0.00 1.55 1.52 78 1011.8
20260903155753 27 281 0.0 0.0 0.00 1.55 1.52 78 1011.8
20260903155652 27 237 0.0 0.0 0.00 1.55 1.52 79 1012.2
20260903155552 27 219 0.0 0.0 0.00 1.55 1.52 79 1011.8
20260903155519 27 9 0.0 0.0 0.00 1.55 1.52 79 1011.8
20260903155451 27 302 0.0 0.0 0.00 1.55 1.52 79 1011.8
20260903155350 27 212 0.0 0.0 0.00 1.55 1.52 79 1011.9
20260903155319 27 212 0.0 0.0 0.00 1.55 1.52 79 1011.9
20260903155250 27 212 0.0 0.0 0.00 1.55 1.52 79 1012.4
20260903155150 27 212 0.0 0.0 0.00 1.55 1.52 79 1012.5
20260903155127 27 207 0.0 0.0 0.00 1.55 1.52 79 1012.5
20260903155047 27 212 0.0 0.0 0.00 1.55 1.52 79 1012.5
20260903155023 27 209 0.0 0.0 0.00 1.55 1.52 78 1012.6
20260903155019 27 209 0.0 0.0 0.00 1.55 1.52 79 1012.6
20260903155014 27 209 0.0 0.0 0.00 1.55 1.52 79 1012.5
20260903154755 27 207 0.0 0.0 0.00 1.55 1.52 78 1012.3
20260903154546 27 143 0.0 0.0 0.00 1.55 1.52 77 1012.4
20260903154519 27 243 0.0 0.0 0.00 1.55 1.52 77 1012.6
20260903154446 27 264 0.0 0.0 0.00 1.55 1.52 77 1012.6
20260903154344 27 267 0.0 0.0 0.00 1.55 1.52 78 1012.5
20260903154316 27 236 0.0 0.0 0.00 1.55 1.52 78 1012.5
20260903154244 27 190 0.0 0.0 0.00 1.55 1.52 78 1012.3
20260903154143 27 190 0.0 0.0 0.00 1.55 1.52 78 1012.2
20260903154046 27 222 0.0 0.0 0.00 1.55 1.52 78 1012.3
20260903154039 27 262 0.0 0.0 0.00 1.55 1.52 78 1011.7
20260903154019 27 230 0.0 0.0 0.00 1.55 1.52 78 1012.4
20260903153943 27 306 0.0 0.0 0.00 1.55 1.52 78 1012.4
20260903153924 27 263 0.0 0.0 0.00 1.55 1.52 78 1011.7
20260903153756 27 255 0.0 0.0 0.00 1.55 1.52 78 1012.6
20260903153750 27 265 0.0 0.0 0.00 1.55 1.52 79 1012.3
20260903153605 27 209 0.0 0.0 0.00 1.55 1.52 79 1012.2
20260903153541 27 256 0.0 0.0 0.00 1.55 1.52 78 1012.3
20260903153534 27 241 0.0 0.0 0.00 1.55 1.52 79 1011.6
20260903153508 27 259 0.0 0.0 0.00 1.55 1.52 79 1012.2
20260903153503 27 252 0.0 0.0 0.00 1.55 1.52 79 1011.6
20260903153454 27 209 0.0 0.0 0.00 1.55 1.52 79 1012.2
20260903153154 27 221 0.0 0.0 0.00 1.55 1.52 78 1012.5
20260903153149 27 221 0.0 0.0 0.00 1.55 1.52 78 1012.5
20260903153020 27 285 0.0 0.0 0.00 1.55 1.52 78 1012.5
20260903152939 27 285 0.0 0.0 0.00 1.55 1.52 78 1012.5
20260903152837 27 212 0.0 0.0 0.00 1.55 1.52 78 1012.7
20260903152812 27 213 0.0 0.0 0.00 1.55 1.52 78 1012.7
20260903152737 27 229 0.0 0.0 0.00 1.55 1.52 78 1012.7
20260903152637 27 203 0.0 0.0 0.00 1.55 1.52 79 1012.8
20260903152536 27 163 0.0 0.0 0.00 1.55 1.52 78 1012.7
20260903152519 27 163 0.0 0.0 0.00 1.55 1.52 77 1012.8
20260903152435 27 162 0.0 0.0 0.00 1.55 1.52 77 1012.8
20260903152335 27 209 0.0 0.0 0.00 1.55 1.52 76 1012.8
20260903152312 27 284 0.0 0.0 0.00 1.55 1.52 77 1012.8
20260903152234 27 336 0.0 0.0 0.00 1.55 1.52 77 1012.9
20260903152136 27 261 0.0 0.0 0.00 1.55 1.52 77 1012.8
20260903152129 27 259 0.0 0.0 0.00 1.55 1.52 77 1012.9
20260903152125 27 259 0.0 0.0 0.00 1.55 1.52 77 1012.9
20260903152118 27 252 0.0 0.0 0.00 1.55 1.52 77 1012.9
20260903152019 27 283 0.0 0.0 0.00 1.55 1.52 77 1012.9
20260903152005 27 283 0.0 0.0 0.00 1.55 1.52 76 1012.9
20260903151956 27 287 0.0 0.0 0.00 1.55 1.52 77 1012.9
20260903151531 27 264 0.0 0.0 0.00 1.55 1.52 77 1012.9
20260903151519 27 264 0.0 0.0 0.00 1.55 1.52 77 1012.5
20260903151431 27 261 0.0 0.0 0.00 1.55 1.52 77 1012.5
20260903151350 27 259 0.0 0.0 0.00 1.55 1.52 78 1011.9
20260903151345 27 306 0.0 0.0 0.00 1.55 1.52 78 1012.7
20260903151337 27 318 0.0 0.0 0.00 1.55 1.52 78 1012.7
20260903151144 27 196 0.0 0.0 0.00 1.55 1.52 80 1009.0
20260903151138 27 284 0.0 0.0 0.00 1.55 1.52 78 1011.9
20260903151034 27 196 0.0 0.0 0.00 1.55 1.52 80 1008.9
20260903150928 27 196 0.0 0.0 0.00 1.55 1.52 80 1009.0
20260903150827 27 196 0.0 0.0 0.00 1.55 1.52 81 1009.0
20260903150809 27 194 0.0 0.0 0.00 1.55 1.52 81 1009.0
20260903150727 27 220 0.0 0.0 0.00 1.55 1.52 81 1009.0
20260903150627 27 266 0.0 0.0 0.00 1.55 1.52 82 1009.0
20260903150526 27 235 0.0 0.0 0.00 1.55 1.52 81 1008.9
20260903150519 27 236 0.0 0.0 0.00 1.55 1.52 81 1008.9
20260903150426 27 235 0.0 0.0 0.00 1.55 1.52 81 1008.9
20260903150324 27 235 0.0 0.0 0.00 1.55 1.52 81 1009.1
20260903150306 27 245 0.0 0.0 0.00 1.55 1.52 81 1009.1
20260903150224 27 247 0.0 0.0 0.00 1.55 1.52 81 1008.6
20260903150124 27 248 0.0 0.0 0.00 1.55 1.52 81 1008.7
20260903150037 27 269 0.0 0.0 0.00 1.55 1.52 81 1010.2
20260903150032 27 257 0.0 0.0 0.00 1.55 1.52 81 1010.2
20260903150019 27 257 0.0 0.0 0.00 1.55 1.52 82 1010.2
20260903145806 27 271 0.0 0.0 0.00 1.55 1.52 81 1013.0
20260903145721 27 271 0.0 0.0 0.00 1.55 1.52 81 1013.0
20260903145635 27 270 0.0 0.0 0.00 1.55 1.52 80 1013.0
20260903145629 27 271 0.0 0.0 0.00 1.55 1.52 80 1013.0
20260903145520 27 270 0.0 0.0 0.00 1.55 1.52 80 1011.3
20260903145420 27 290 0.0 0.0 0.00 1.55 1.52 80 1011.3
20260903145306 27 263 0.0 0.0 0.00 1.55 1.52 80 1011.3
20260903145218 27 268 0.0 0.0 0.00 1.55 1.52 80 1011.3
20260903145131 27 268 0.0 0.0 0.00 1.55 1.52 81 1011.9
20260903145126 27 218 0.0 0.0 0.00 1.55 1.52 80 1011.3
20260903145019 27 269 0.0 0.0 0.00 1.55 1.52 80 1011.4
20260903144917 27 270 0.0 0.0 0.00 1.55 1.52 80 1011.4
20260903144804 27 254 0.0 0.0 0.00 1.55 1.52 81 1011.1
20260903144730 27 254 0.0 0.0 0.00 1.55 1.52 81 1011.2
20260903144724 27 250 0.0 0.0 0.00 1.55 1.52 81 1011.2
20260903144519 27 254 0.0 0.0 0.00 1.55 1.52 81 1010.6
20260903144515 27 254 0.0 0.0 0.00 1.55 1.52 81 1011.2
20260903144414 27 281 0.0 0.0 0.00 1.55 1.52 82 1010.6
20260903144314 26 305 0.0 0.0 0.00 1.55 1.52 84 1010.9
20260903144304 26 233 0.0 0.0 0.00 1.55 1.52 84 1010.9
20260903144214 26 232 0.0 0.0 0.00 1.55 1.52 83 1010.9
20260903144127 26 230 0.0 0.0 0.00 1.55 1.52 85 1011.6
20260903144122 26 232 0.0 0.0 0.00 1.55 1.52 83 1011.3
20260903144019 26 246 0.0 0.0 0.00 1.55 1.52 85 1012.2
20260903143912 26 242 0.0 0.0 0.00 1.55 1.52 85 1012.2
20260903143812 26 242 0.0 0.0 0.00 1.55 1.52 85 1012.1
20260903143803 26 242 0.0 0.0 0.00 1.55 1.52 84 1009.5
20260903143725 26 241 0.0 0.0 0.00 1.55 1.52 84 1009.5
20260903143720 26 241 0.0 0.0 0.00 1.55 1.52 84 1009.5
20260903143534 26 194 0.0 0.0 0.00 1.55 1.52 84 1011.8
20260903143510 26 194 0.0 0.0 0.00 1.55 1.52 84 1009.5
20260903143410 26 194 0.0 0.0 0.00 1.55 1.52 83 1011.8
20260903143310 26 201 0.0 0.0 0.00 1.55 1.52 84 1011.8
20260903143303 26 233 0.0 0.0 0.00 1.55 1.52 84 1011.8
20260903143209 26 331 0.0 0.0 0.00 1.55 1.52 84 1011.8
20260903143108 26 255 0.0 0.0 0.00 1.55 1.52 85 1011.3
20260903143019 26 199 0.0 0.0 0.00 1.55 1.52 85 1009.9
20260903143007 26 202 0.0 0.0 0.00 1.55 1.52 85 1009.9
20260903142907 26 267 0.0 0.0 0.00 1.55 1.52 85 1009.9
20260903142810 26 275 0.0 0.0 0.00 1.55 1.52 86 1010.6
20260903142803 26 288 0.0 0.0 0.00 1.55 1.52 86 1010.6
20260903142706 26 268 0.0 0.0 0.00 1.55 1.52 86 1008.6
20260903142607 26 246 0.0 0.0 0.00 1.55 1.52 88 1008.6
20260903142519 26 261 0.0 0.0 0.00 1.55 1.52 88 1008.6
20260903142506 26 261 0.0 0.0 0.00 1.55 1.52 88 1008.6
20260903142406 26 261 0.0 0.0 0.00 1.55 1.52 88 1008.6
20260903142306 25 261 0.0 0.0 0.00 1.55 1.52 88 1008.6
20260903142207 25 262 0.0 0.0 0.00 1.55 1.52 88 1008.5
20260903142200 25 224 0.0 0.0 0.00 1.55 1.52 89 1012.2
20260903142156 25 191 0.0 0.0 0.00 1.55 1.52 89 1011.8
20260903142149 25 262 0.0 0.0 0.00 1.55 1.52 87 1012.2
20260903142020 25 236 0.0 0.0 0.00 1.55 1.52 89 1012.2
20260903141927 25 259 0.0 0.0 0.00 1.55 1.52 89 1012.2
20260903141813 25 191 0.0 0.0 0.00 1.55 1.52 89 1011.8
20260903141602 25 276 0.0 0.0 0.00 1.55 1.52 91 1009.4
20260903141519 25 205 0.0 0.0 0.00 1.55 1.52 92 1009.4
20260903141502 25 205 0.0 0.0 0.00 1.55 1.52 92 1009.4
20260903141402 25 206 0.0 0.0 0.00 1.55 1.52 92 1009.4
20260903141301 25 206 0.0 0.0 0.00 1.55 1.52 93 1010.0
20260903141200 25 207 0.0 0.0 0.00 1.55 1.52 93 1010.0
20260903141100 25 252 0.0 0.0 0.00 1.55 1.52 93 1009.0
20260903141042 25 252 0.0 0.0 0.00 1.55 1.52 93 1008.7
20260903141019 25 250 0.0 0.0 0.00 1.55 1.52 93 1009.0
20260903140959 25 250 0.0 0.0 0.00 1.55 1.52 93 1009.0
20260903140942 25 252 0.0 0.0 0.00 1.55 1.52 94 1008.9
20260903140938 24 277 0.0 0.0 0.00 1.55 1.52 94 1008.8
20260903140931 25 251 0.0 0.0 0.00 1.55 1.52 93 1008.7
20260903140817 25 252 0.0 0.0 0.00 1.55 1.52 93 1008.7
20260903140520 24 250 0.0 0.0 0.00 1.55 1.52 94 1009.1
20260903140458 24 250 0.0 0.0 0.00 1.55 1.52 94 1009.1
20260903140358 24 258 0.0 0.0 0.00 1.55 1.52 95 1009.4
20260903140257 24 242 0.0 0.0 0.00 1.55 1.52 95 1010.5
20260903140157 24 241 0.0 0.0 0.00 1.55 1.52 95 1010.5
20260903140139 24 242 0.0 0.0 0.00 1.55 1.52 95 1010.3
20260903140133 24 241 0.0 0.0 0.00 1.55 1.52 95 1010.5
20260903140034 24 242 0.0 0.0 0.00 1.55 1.52 95 1010.3
20260903135910 24 238 0.0 0.0 0.00 1.55 1.52 95 1010.6
20260903135902 24 238 0.0 0.0 0.00 1.55 1.52 95 1010.5
20260903135655 24 242 0.0 0.0 0.00 1.55 1.52 95 1011.0
20260903135554 24 242 0.0 0.0 0.00 1.55 1.52 95 1010.6
20260903135523 23 257 0.0 0.0 0.00 1.55 1.52 96 1010.5
20260903135520 24 242 0.0 0.0 0.00 1.55 1.52 95 1010.6
20260903135453 24 257 0.0 0.0 0.00 1.55 1.52 95 1010.5
20260903135407 24 257 0.0 0.0 0.00 1.55 1.52 95 1010.5
20260903135253 23 257 0.0 0.0 0.00 1.55 1.52 96 1010.5
20260903135152 23 257 0.0 0.0 0.00 1.55 1.52 96 1010.5
20260903135106 23 237 0.0 0.0 0.00 1.55 1.52 96 1010.5
20260903135100 23 256 0.0 0.0 0.00 1.55 1.52 96 1010.5